WA9SDJ-13 Weather Reports


time (UTC)temp
C
wind
direction
speed
KPH
gust
KPH
rain 1hr
cm
rain 24hr
cm
rain mn
cm
humidity
%
barometer
mb
20260905205202 33 11 4.8 8.0 0.00 0.00 0.00 63 1010.8
20260905205102 33 334 3.2 8.0 0.00 0.00 0.00 64 1010.8
20260905205003 33 331 3.2 9.7 0.00 0.00 0.00 63 1010.8
20260905204902 33 331 3.2 9.7 0.00 0.00 0.00 63 1010.7
20260905204803 33 331 3.2 9.7 0.00 0.00 0.00 63 1010.8
20260905204703 33 331 3.2 9.7 0.00 0.00 0.00 63 1010.8
20260905204601 33 331 1.6 9.7 0.00 0.00 0.00 63 1010.9
20260905204502 33 331 3.2 9.7 0.00 0.00 0.00 63 1010.8
20260905204403 33 331 3.2 9.7 0.00 0.00 0.00 63 1010.8
20260905204303 33 331 4.8 9.7 0.00 0.00 0.00 63 1010.9
20260905204201 33 334 4.8 9.7 0.00 0.00 0.00 62 1011.0
20260905204102 33 341 4.8 9.7 0.00 0.00 0.00 62 1011.0
20260905204003 33 0 3.2 14.5 0.00 0.00 0.00 62 1011.0
20260905203902 33 7 4.8 16.1 0.00 0.00 0.00 62 1011.0
20260905203803 33 329 4.8 16.1 0.00 0.00 0.00 62 1011.0
20260905203702 33 314 4.8 16.1 0.00 0.00 0.00 61 1011.1
20260905203602 33 333 4.8 16.1 0.00 0.00 0.00 61 1011.0
20260905203503 34 314 4.8 16.1 0.00 0.00 0.00 60 1011.0
20260905203402 34 314 6.4 16.1 0.00 0.00 0.00 59 1011.1
20260905203302 34 298 8.0 16.1 0.00 0.00 0.00 59 1011.0
20260905203202 35 333 8.0 16.1 0.00 0.00 0.00 58 1011.0
20260905203101 35 327 9.7 16.1 0.00 0.00 0.00 58 1011.1
20260905203000 35 7 9.7 16.1 0.00 0.00 0.00 57 1011.1
20260905202858 35 341 11.3 16.1 0.00 0.00 0.00 57 1011.0
20260905202757 35 314 9.7 16.1 0.00 0.00 0.00 57 1011.0
20260905202655 35 338 9.7 16.1 0.00 0.00 0.00 58 1011.0
20260905202553 35 3 9.7 16.1 0.00 0.00 0.00 56 1011.1
20260905202452 35 20 9.7 17.7 0.00 0.00 0.00 55 1011.1
20260905202351 35 24 9.7 17.7 0.00 0.00 0.00 56 1011.1
20260905202249 35 289 8.0 17.7 0.00 0.00 0.00 56 1011.0
20260905202147 35 355 6.4 17.7 0.00 0.00 0.00 58 1010.9
20260905202046 35 0 6.4 17.7 0.00 0.00 0.00 56 1010.9
20260905201945 35 0 6.4 17.7 0.00 0.00 0.00 55 1010.9
20260905201843 35 312 6.4 17.7 0.00 0.00 0.00 55 1011.0
20260905201741 35 18 9.7 17.7 0.00 0.00 0.00 56 1011.0
20260905201638 35 337 11.3 17.7 0.00 0.00 0.00 55 1011.1
20260905201536 35 295 9.7 17.7 0.00 0.00 0.00 55 1011.1
20260905201434 35 348 4.8 17.7 0.00 0.00 0.00 56 1011.1
20260905201333 35 300 6.4 17.7 0.00 0.00 0.00 56 1011.0
20260905201231 35 314 8.0 17.7 0.00 0.00 0.00 56 1011.0
20260905201131 35 313 9.7 17.7 0.00 0.00 0.00 55 1011.0
20260905201032 35 353 8.0 17.7 0.00 0.00 0.00 54 1011.0
20260905200931 35 357 6.4 17.7 0.00 0.00 0.00 55 1011.1
20260905200831 35 4 6.4 17.7 0.00 0.00 0.00 55 1011.1
20260905200731 35 7 8.0 17.7 0.00 0.00 0.00 55 1011.1
20260905200630 35 337 9.7 17.7 0.00 0.00 0.00 55 1011.2
20260905200531 35 0 12.9 17.7 0.00 0.00 0.00 56 1011.2
20260905200430 35 7 9.7 17.7 0.00 0.00 0.00 55 1011.3
20260905200326 35 343 6.4 16.1 0.00 0.00 0.00 56 1011.3
20260905200224 35 353 6.4 14.5 0.00 0.00 0.00 55 1011.3
20260905200123 35 320 6.4 14.5 0.00 0.00 0.00 54 1011.3
20260905200023 35 334 6.4 14.5 0.00 0.00 0.00 55 1011.2
20260905195921 35 0 6.4 14.5 0.00 0.00 0.00 56 1011.2
20260905195821 35 0 6.4 14.5 0.00 0.00 0.00 56 1011.3
20260905195721 35 316 8.0 14.5 0.00 0.00 0.00 56 1011.2
20260905195621 35 8 8.0 14.5 0.00 0.00 0.00 57 1011.3
20260905195522 35 319 6.4 14.5 0.00 0.00 0.00 57 1011.3
20260905195422 35 288 6.4 14.5 0.00 0.00 0.00 56 1011.2
20260905195321 35 247 8.0 11.3 0.00 0.00 0.00 56 1011.2
20260905195221 35 285 6.4 11.3 0.00 0.00 0.00 56 1011.2
20260905195122 35 20 3.2 11.3 0.00 0.00 0.00 57 1011.2
20260905195021 35 224 1.6 11.3 0.00 0.00 0.00 58 1011.3
20260905194921 35 224 4.8 11.3 0.00 0.00 0.00 57 1011.3
20260905194821 35 286 6.4 11.3 0.00 0.00 0.00 57 1011.3
20260905194721 35 7 6.4 11.3 0.00 0.00 0.00 56 1011.3
20260905194621 35 347 6.4 9.7 0.00 0.00 0.00 57 1011.3
20260905194521 35 310 6.4 11.3 0.00 0.00 0.00 55 1011.4
20260905194422 35 10 4.8 11.3 0.00 0.00 0.00 56 1011.4
20260905194321 35 348 4.8 11.3 0.00 0.00 0.00 56 1011.4
20260905194221 35 331 6.4 14.5 0.00 0.00 0.00 56 1011.4
20260905194122 35 17 4.8 14.5 0.00 0.00 0.00 57 1011.3
20260905194022 35 320 4.8 14.5 0.00 0.00 0.00 56 1011.3
20260905193921 35 324 3.2 14.5 0.00 0.00 0.00 54 1011.3
20260905193821 35 323 4.8 14.5 0.00 0.00 0.00 54 1011.2
20260905193721 35 320 6.4 14.5 0.00 0.00 0.00 54 1011.2
20260905193621 35 290 6.4 14.5 0.00 0.00 0.00 54 1011.2
20260905193521 35 344 6.4 14.5 0.00 0.00 0.00 54 1011.2
20260905193420 35 0 8.0 14.5 0.00 0.00 0.00 55 1011.2
20260905193320 35 323 8.0 14.5 0.00 0.00 0.00 55 1011.2
20260905193221 35 336 6.4 11.3 0.00 0.00 0.00 55 1011.1
20260905193121 35 343 4.8 11.3 0.00 0.00 0.00 55 1011.1
20260905193021 35 7 4.8 11.3 0.00 0.00 0.00 56 1011.2
20260905192921 35 10 6.4 14.5 0.00 0.00 0.00 56 1011.1
20260905192821 35 331 8.0 14.5 0.00 0.00 0.00 55 1011.2
20260905192720 35 340 8.0 14.5 0.00 0.00 0.00 56 1011.3
20260905192620 35 329 6.4 14.5 0.00 0.00 0.00 57 1011.3
20260905192520 35 326 6.4 14.5 0.00 0.00 0.00 60 1011.3
20260905192421 35 274 4.8 14.5 0.00 0.00 0.00 61 1011.4
20260905192321 35 334 1.6 14.5 0.00 0.00 0.00 63 1011.4
20260905192221 35 279 3.2 14.5 0.00 0.00 0.00 64 1011.4
20260905192121 34 279 4.8 14.5 0.00 0.00 0.00 62 1011.4
20260905192021 34 298 4.8 14.5 0.00 0.00 0.00 60 1011.4
20260905191920 34 24 4.8 9.7 0.00 0.00 0.00 60 1011.4
20260905191819 34 42 4.8 8.0 0.00 0.00 0.00 59 1011.4
20260905191720 34 42 3.2 8.0 0.00 0.00 0.00 59 1011.4
20260905191620 34 13 1.6 8.0 0.00 0.00 0.00 59 1011.5
20260905191520 34 13 3.2 8.0 0.00 0.00 0.00 59 1011.5
20260905191420 34 13 4.8 8.0 0.00 0.00 0.00 60 1011.5
20260905191320 34 41 3.2 6.4 0.00 0.00 0.00 60 1011.4
20260905191220 34 55 1.6 6.4 0.00 0.00 0.00 61 1011.5
20260905191120 34 55 3.2 6.4 0.00 0.00 0.00 61 1011.4
20260905191021 34 55 1.6 6.4 0.00 0.00 0.00 63 1011.4
20260905190921 34 55 0.0 6.4 0.00 0.00 0.00 63 1011.4
20260905190820 34 55 1.6 6.4 0.00 0.00 0.00 63 1011.4
20260905190720 34 55 3.2 6.4 0.00 0.00 0.00 64 1011.4
20260905190620 34 55 3.2 6.4 0.00 0.00 0.00 63 1011.4
20260905190520 34 55 3.2 4.8 0.00 0.00 0.00 64 1011.4
20260905190420 34 55 1.6 4.8 0.00 0.00 0.00 64 1011.4
20260905190320 34 55 1.6 4.8 0.00 0.00 0.00 64 1011.4
20260905190220 34 55 1.6 4.8 0.00 0.00 0.00 64 1011.5
20260905190120 34 31 1.6 4.8 0.00 0.00 0.00 65 1011.5
20260905190020 33 31 1.6 4.8 0.00 0.00 0.00 66 1011.5
20260905185920 33 31 0.0 4.8 0.00 0.00 0.00 66 1011.5
20260905185820 33 31 1.6 4.8 0.00 0.00 0.00 63 1011.5
20260905185720 33 31 1.6 4.8 0.00 0.00 0.00 63 1011.5
20260905185620 33 31 0.0 4.8 0.00 0.00 0.00 64 1011.7
20260905185520 33 31 0.0 4.8 0.00 0.00 0.00 63 1011.8
20260905185419 33 31 0.0 4.8 0.00 0.00 0.00 62 1011.8
20260905185320 33 31 1.6 4.8 0.00 0.00 0.00 62 1011.8
20260905185220 33 31 1.6 4.8 0.00 0.00 0.00 63 1011.8
20260905185120 33 31 0.0 3.2 0.00 0.00 0.00 63 1011.9
20260905185020 34 31 0.0 3.2 0.00 0.00 0.00 63 1011.9
20260905184920 34 31 0.0 3.2 0.00 0.00 0.00 63 1011.9
20260905184820 34 31 0.0 3.2 0.00 0.00 0.00 63 1011.8
20260905184720 34 31 0.0 3.2 0.00 0.00 0.00 62 1011.8
20260905184620 34 31 0.0 4.8 0.00 0.00 0.00 62 1011.8
20260905184519 34 31 0.0 4.8 0.00 0.00 0.00 62 1011.8
20260905184419 34 31 0.0 4.8 0.00 0.00 0.00 62 1011.9
20260905184320 35 31 1.6 6.4 0.00 0.00 0.00 62 1011.8
20260905184220 35 31 1.6 8.0 0.00 0.00 0.00 60 1011.8
20260905184120 35 31 0.0 8.0 0.00 0.00 0.00 59 1011.8
20260905184020 35 31 0.0 8.0 0.00 0.00 0.00 58 1011.9
20260905183920 35 31 0.0 8.0 0.00 0.00 0.00 58 1011.9
20260905183820 35 31 1.6 8.0 0.00 0.00 0.00 58 1012.0
20260905183719 35 31 1.6 8.0 0.00 0.00 0.00 57 1011.9
20260905183620 35 31 1.6 8.0 0.00 0.00 0.00 57 1012.0
20260905183519 35 31 3.2 8.0 0.00 0.00 0.00 57 1012.0
20260905183419 35 31 6.4 8.0 0.00 0.00 0.00 58 1012.0
20260905183319 35 30 4.8 8.0 0.00 0.00 0.00 57 1012.0
20260905183219 35 336 4.8 8.0 0.00 0.00 0.00 57 1012.0
20260905183119 35 303 4.8 8.0 0.00 0.00 0.00 57 1012.0
20260905183019 35 0 4.8 6.4 0.00 0.00 0.00 56 1012.0
20260905182919 35 0 3.2 6.4 0.00 0.00 0.00 57 1012.0
20260905182819 35 37 1.6 4.8 0.00 0.00 0.00 56 1012.0
20260905182719 35 37 3.2 4.8 0.00 0.00 0.00 56 1012.1
20260905182619 35 37 3.2 4.8 0.00 0.00 0.00 57 1012.1
20260905182519 35 41 1.6 4.8 0.00 0.00 0.00 56 1012.1
20260905182419 35 41 0.0 4.8 0.00 0.00 0.00 56 1012.2
20260905182319 35 41 0.0 4.8 0.00 0.00 0.00 58 1012.2
20260905182219 35 41 1.6 4.8 0.00 0.00 0.00 57 1012.2
20260905182119 35 41 0.0 4.8 0.00 0.00 0.00 57 1012.2
20260905182019 35 251 0.0 3.2 0.00 0.00 0.00 57 1012.2
20260905181919 35 251 0.0 3.2 0.00 0.00 0.00 57 1012.2
20260905181819 35 251 0.0 3.2 0.00 0.00 0.00 59 1012.3
20260905181719 35 251 0.0 3.2 0.00 0.00 0.00 58 1012.2
20260905181619 35 251 0.0 3.2 0.00 0.00 0.00 58 1012.3
20260905181519 35 251 0.0 3.2 0.00 0.00 0.00 57 1012.3
20260905181419 35 251 0.0 3.2 0.00 0.00 0.00 57 1012.3
20260905181319 35 251 0.0 3.2 0.00 0.00 0.00 57 1012.4
20260905181219 35 251 0.0 3.2 0.00 0.00 0.00 58 1012.3
20260905181119 35 251 0.0 4.8 0.00 0.00 0.00 59 1012.3
20260905181019 35 251 0.0 4.8 0.00 0.00 0.00 59 1012.3
20260905180919 34 251 0.0 4.8 0.00 0.00 0.00 60 1012.3
20260905180819 34 251 0.0 4.8 0.00 0.00 0.00 62 1012.4
20260905180719 34 251 0.0 4.8 0.00 0.00 0.00 62 1012.4
20260905180619 34 251 0.0 4.8 0.00 0.00 0.00 61 1012.4
20260905180519 34 251 0.0 4.8 0.00 0.00 0.00 62 1012.4
20260905180418 34 251 0.0 4.8 0.00 0.00 0.00 61 1012.4
20260905180318 34 251 1.6 4.8 0.00 0.00 0.00 61 1012.5
20260905180218 34 251 3.2 4.8 0.00 0.00 0.00 61 1012.5
20260905180118 34 251 1.6 4.8 0.00 0.00 0.00 62 1012.5
20260905180019 34 251 1.6 6.4 0.00 0.00 0.00 62 1012.5
20260905175919 34 251 3.2 6.4 0.00 0.00 0.00 59 1012.5
20260905175819 34 251 1.6 6.4 0.00 0.00 0.00 61 1012.5
20260905175719 34 251 0.0 6.4 0.00 0.00 0.00 60 1012.6
20260905175618 34 251 0.0 6.4 0.00 0.00 0.00 58 1012.5
20260905175518 34 251 0.0 6.4 0.00 0.00 0.00 58 1012.6
20260905175418 34 251 1.6 6.4 0.00 0.00 0.00 58 1012.6
20260905175318 34 251 3.2 6.4 0.00 0.00 0.00 59 1012.7
20260905175218 34 251 3.2 6.4 0.00 0.00 0.00 60 1012.7
20260905175118 34 251 3.2 6.4 0.00 0.00 0.00 59 1012.6
20260905175018 34 252 3.2 6.4 0.00 0.00 0.00 61 1012.7
20260905174918 34 269 1.6 4.8 0.00 0.00 0.00 62 1012.7
20260905174818 34 227 1.6 4.8 0.00 0.00 0.00 63 1012.6
20260905174719 34 226 1.6 6.4 0.00 0.00 0.00 62 1012.6
20260905174619 34 226 1.6 6.4 0.00 0.00 0.00 64 1012.6
20260905174519 34 226 1.6 6.4 0.00 0.00 0.00 62 1012.6
20260905174418 34 147 0.0 6.4 0.00 0.00 0.00 61 1012.6
20260905174318 34 94 0.0 6.4 0.00 0.00 0.00 62 1012.6
20260905174218 33 79 1.6 6.4 0.00 0.00 0.00 62 1012.6
20260905174118 33 0 3.2 6.4 0.00 0.00 0.00 61 1012.6
20260905174018 33 0 3.2 6.4 0.00 0.00 0.00 61 1012.6
20260905173918 33 0 3.2 6.4 0.00 0.00 0.00 61 1012.7
20260905173819 33 0 1.6 6.4 0.00 0.00 0.00 61 1012.6
20260905173718 33 331 0.0 6.4 0.00 0.00 0.00 62 1012.7
20260905173618 33 336 0.0 6.4 0.00 0.00 0.00 61 1012.7
20260905173518 33 334 1.6 6.4 0.00 0.00 0.00 61 1012.7
20260905173418 33 44 4.8 6.4 0.00 0.00 0.00 61 1012.6
20260905173318 33 220 4.8 6.4 0.00 0.00 0.00 64 1012.7
20260905173217 33 226 3.2 6.4 0.00 0.00 0.00 63 1012.6
20260905173118 33 247 3.2 6.4 0.00 0.00 0.00 63 1012.7
20260905173018 33 247 3.2 6.4 0.00 0.00 0.00 63 1012.7
20260905172918 33 245 1.6 6.4 0.00 0.00 0.00 63 1012.6
20260905172818 33 238 1.6 6.4 0.00 0.00 0.00 63 1012.6
20260905172718 33 238 1.6 6.4 0.00 0.00 0.00 62 1012.6
20260905172618 33 238 3.2 6.4 0.00 0.00 0.00 63 1012.6
20260905172518 33 258 1.6 4.8 0.00 0.00 0.00 63 1012.7
20260905172418 33 298 3.2 4.8 0.00 0.00 0.00 61 1012.7
20260905172317 33 298 3.2 4.8 0.00 0.00 0.00 62 1012.6
20260905172217 33 303 1.6 4.8 0.00 0.00 0.00 64 1012.6
20260905172117 33 307 1.6 4.8 0.00 0.00 0.00 65 1012.6
20260905172017 33 309 0.0 4.8 0.00 0.00 0.00 66 1012.6
20260905171917 33 309 0.0 4.8 0.00 0.00 0.00 66 1012.6
20260905171818 33 316 1.6 4.8 0.00 0.00 0.00 65 1012.6
20260905171718 33 292 0.0 4.8 0.00 0.00 0.00 66 1012.6
20260905171618 33 251 0.0 4.8 0.00 0.00 0.00 66 1012.6
20260905171518 33 252 0.0 4.8 0.00 0.00 0.00 67 1012.7
20260905171418 33 252 1.6 4.8 0.00 0.00 0.00 66 1012.6
20260905171317 33 252 1.6 4.8 0.00 0.00 0.00 65 1012.6
20260905171218 33 252 0.0 4.8 0.00 0.00 0.00 64 1012.6
20260905171118 33 252 0.0 4.8 0.00 0.00 0.00 65 1012.7
20260905171018 33 252 1.6 4.8 0.00 0.00 0.00 66 1012.7
20260905170917 33 252 3.2 4.8 0.00 0.00 0.00 65 1012.6
20260905170817 33 252 3.2 4.8 0.00 0.00 0.00 64 1012.7
20260905170717 33 138 3.2 4.8 0.00 0.00 0.00 66 1012.7
20260905170617 33 235 3.2 4.8 0.00 0.00 0.00 66 1012.7
20260905170518 33 237 1.6 4.8 0.00 0.00 0.00 66 1012.7
20260905170418 33 240 1.6 6.4 0.00 0.00 0.00 66 1012.8
20260905170318 33 164 1.6 6.4 0.00 0.00 0.00 66 1012.8
20260905170218 33 159 1.6 6.4 0.00 0.00 0.00 66 1012.9
20260905170118 33 238 0.0 6.4 0.00 0.00 0.00 67 1012.8
20260905170017 33 238 0.0 6.4 0.00 0.00 0.00 67 1012.8
20260905165917 33 238 1.6 6.4 0.00 0.00 0.00 66 1012.8
20260905165817 33 238 1.6 6.4 0.00 0.00 0.00 65 1012.8
20260905165717 33 238 1.6 6.4 0.00 0.00 0.00 66 1012.8
20260905165617 33 238 3.2 6.4 0.00 0.00 0.00 67 1012.8
20260905165517 33 282 3.2 6.4 0.00 0.00 0.00 65 1012.8
20260905165417 33 219 3.2 6.4 0.00 0.00 0.00 65 1012.9
20260905165314 33 216 3.2 6.4 0.00 0.00 0.00 67 1012.9
20260905165213 33 230 0.0 6.4 0.00 0.00 0.00 66 1012.8
20260905165112 33 173 0.0 6.4 0.00 0.00 0.00 65 1012.8
20260905165011 33 180 0.0 6.4 0.00 0.00 0.00 65 1012.8
20260905164908 33 180 1.6 6.4 0.00 0.00 0.00 64 1012.8
20260905164807 33 180 1.6 6.4 0.00 0.00 0.00 64 1012.8
20260905164706 33 175 1.6 6.4 0.00 0.00 0.00 65 1012.8
20260905164604 33 247 1.6 6.4 0.00 0.00 0.00 65 1012.8
20260905164504 33 219 3.2 8.0 0.00 0.00 0.00 65 1012.9
20260905164404 33 180 3.2 8.0 0.00 0.00 0.00 64 1012.8
20260905164302 33 173 3.2 8.0 0.00 0.00 0.00 65 1012.8
20260905164202 33 183 3.2 8.0 0.00 0.00 0.00 65 1012.8
20260905164102 33 214 3.2 8.0 0.00 0.00 0.00 64 1012.8
20260905164003 33 168 1.6 8.0 0.00 0.00 0.00 64 1012.8
20260905163902 33 157 1.6 8.0 0.00 0.00 0.00 64 1012.8
20260905163802 33 157 1.6 8.0 0.00 0.00 0.00 65 1012.8
20260905163702 33 142 3.2 8.0 0.00 0.00 0.00 65 1012.8
20260905163603 33 137 3.2 8.0 0.00 0.00 0.00 65 1012.9
20260905163502 33 100 1.6 8.0 0.00 0.00 0.00 64 1012.9
20260905163401 33 141 1.6 8.0 0.00 0.00 0.00 64 1012.9
20260905163302 32 147 1.6 8.0 0.00 0.00 0.00 65 1012.9
20260905163201 32 195 1.6 9.7 0.00 0.00 0.00 66 1012.9
20260905163102 32 148 1.6 9.7 0.00 0.00 0.00 65 1012.9
20260905163002 32 255 3.2 9.7 0.00 0.00 0.00 66 1012.9
20260905162902 32 148 3.2 9.7 0.00 0.00 0.00 66 1012.9
20260905162803 32 149 3.2 9.7 0.00 0.00 0.00 66 1013.0
20260905162702 32 149 1.6 9.7 0.00 0.00 0.00 66 1012.9
20260905162602 32 49 1.6 9.7 0.00 0.00 0.00 66 1013.0
20260905162503 32 102 1.6 9.7 0.00 0.00 0.00 66 1013.1
20260905162403 32 155 3.2 9.7 0.00 0.00 0.00 68 1013.1
20260905162305 32 151 3.2 9.7 0.00 0.00 0.00 67 1013.1
20260905162202 32 117 1.6 6.4 0.00 0.00 0.00 69 1013.1
20260905162102 32 166 1.6 4.8 0.00 0.00 0.00 68 1013.1
20260905162003 32 241 1.6 4.8 0.00 0.00 0.00 68 1013.2
20260905161902 32 203 1.6 4.8 0.00 0.00 0.00 67 1013.2
20260905161802 32 203 1.6 4.8 0.00 0.00 0.00 66 1013.2
20260905161702 32 216 0.0 4.8 0.00 0.00 0.00 67 1013.1
20260905161602 32 134 1.6 4.8 0.00 0.00 0.00 68 1013.1
20260905161502 32 137 1.6 4.8 0.00 0.00 0.00 67 1013.2
20260905161402 32 183 1.6 4.8 0.00 0.00 0.00 67 1013.2
20260905161302 32 158 1.6 4.8 0.00 0.00 0.00 67 1013.2
20260905161202 32 158 0.0 4.8 0.00 0.00 0.00 68 1013.2
20260905161102 32 220 0.0 4.8 0.00 0.00 0.00 69 1013.2
20260905161003 32 219 0.0 4.8 0.00 0.00 0.00 69 1013.2
20260905160902 32 210 0.0 4.8 0.00 0.00 0.00 69 1013.3
20260905160802 32 210 0.0 4.8 0.00 0.00 0.00 69 1013.3
20260905160703 32 209 1.6 6.4 0.00 0.00 0.00 68 1013.2
20260905160602 32 228 1.6 6.4 0.00 0.00 0.00 70 1013.2
20260905160503 32 186 1.6 8.0 0.00 0.00 0.00 69 1013.2
20260905160402 31 186 1.6 8.0 0.00 0.00 0.00 69 1013.3
20260905160302 31 202 1.6 8.0 0.00 0.00 0.00 68 1013.3
20260905160202 31 202 1.6 8.0 0.00 0.00 0.00 68 1013.3
20260905160002 31 121 1.6 8.0 0.00 0.00 0.00 69 1013.3
20260905155902 31 121 3.2 8.0 0.00 0.00 0.00 68 1013.2
20260905155802 31 73 3.2 8.0 0.00 0.00 0.00 69 1013.3
20260905155702 31 58 3.2 8.0 0.00 0.00 0.00 70 1013.3
20260905155602 31 56 3.2 8.0 0.00 0.00 0.00 70 1013.3
20260905155503 31 134 1.6 6.4 0.00 0.00 0.00 70 1013.3
20260905155402 31 224 1.6 6.4 0.00 0.00 0.00 70 1013.3
20260905155306 31 214 1.6 6.4 0.00 0.00 0.00 70 1013.2
20260905155203 31 214 3.2 6.4 0.00 0.00 0.00 69 1013.3
20260905155103 31 73 3.2 6.4 0.00 0.00 0.00 70 1013.3
20260905155002 31 59 1.6 6.4 0.00 0.00 0.00 70 1013.3
20260905154902 31 182 3.2 6.4 0.00 0.00 0.00 69 1013.3
20260905154802 31 202 3.2 6.4 0.00 0.00 0.00 69 1013.2
20260905154702 31 165 3.2 6.4 0.00 0.00 0.00 72 1013.2
20260905154602 31 231 1.6 6.4 0.00 0.00 0.00 71 1013.2
20260905154502 31 265 1.6 6.4 0.00 0.00 0.00 71 1013.2
20260905154403 31 240 1.6 6.4 0.00 0.00 0.00 71 1013.2
20260905154303 31 121 1.6 6.4 0.00 0.00 0.00 71 1013.1
20260905154201 31 121 3.2 9.7 0.00 0.00 0.00 70 1013.2
20260905154102 31 114 3.2 9.7 0.00 0.00 0.00 70 1013.1
20260905154002 31 154 1.6 9.7 0.00 0.00 0.00 71 1013.1
20260905153902 31 162 1.6 9.7 0.00 0.00 0.00 71 1013.0
20260905153801 31 204 1.6 11.3 0.00 0.00 0.00 71 1013.1
20260905153702 31 131 1.6 11.3 0.00 0.00 0.00 71 1013.1
20260905153602 31 159 3.2 11.3 0.00 0.00 0.00 71 1013.0
20260905153502 31 206 3.2 11.3 0.00 0.00 0.00 71 1013.1
20260905153402 31 161 3.2 11.3 0.00 0.00 0.00 72 1013.1
20260905153302 31 161 3.2 11.3 0.00 0.00 0.00 71 1013.0
20260905153202 31 134 1.6 11.3 0.00 0.00 0.00 72 1013.0
20260905153103 30 161 3.2 11.3 0.00 0.00 0.00 72 1013.0
20260905153001 30 159 4.8 11.3 0.00 0.00 0.00 72 1013.0
20260905152902 30 154 3.2 11.3 0.00 0.00 0.00 74 1012.9
20260905152802 30 189 3.2 6.4 0.00 0.00 0.00 74 1013.0
20260905152702 30 185 3.2 6.4 0.00 0.00 0.00 74 1013.1
20260905152602 30 161 3.2 6.4 0.00 0.00 0.00 73 1013.0
20260905152502 30 237 3.2 6.4 0.00 0.00 0.00 74 1013.1
20260905152402 30 243 1.6 6.4 0.00 0.00 0.00 74 1013.2
20260905152306 30 212 0.0 6.4 0.00 0.00 0.00 76 1013.2
20260905152202 30 213 0.0 6.4 0.00 0.00 0.00 77 1013.2
20260905152102 30 213 1.6 8.0 0.00 0.00 0.00 77 1013.2
20260905152003 30 212 1.6 8.0 0.00 0.00 0.00 75 1013.2
20260905151902 30 173 0.0 8.0 0.00 0.00 0.00 76 1013.2
20260905151801 30 166 0.0 8.0 0.00 0.00 0.00 76 1013.2
20260905151702 30 168 0.0 8.0 0.00 0.00 0.00 76 1013.3
20260905151602 30 168 1.6 8.0 0.00 0.00 0.00 77 1013.4
20260905151502 30 134 1.6 8.0 0.00 0.00 0.00 77 1013.4
20260905151402 29 62 3.2 8.0 0.00 0.00 0.00 77 1013.4
20260905151302 29 189 3.2 8.0 0.00 0.00 0.00 77 1013.6
20260905151202 29 147 3.2 8.0 0.00 0.00 0.00 77 1013.6
20260905151102 29 162 3.2 6.4 0.00 0.00 0.00 77 1013.7
20260905151002 29 125 1.6 6.4 0.00 0.00 0.00 77 1013.8
20260905150902 29 120 0.0 6.4 0.00 0.00 0.00 78 1013.7
20260905150802 29 120 1.6 6.4 0.00 0.00 0.00 77 1013.8
20260905150702 29 120 1.6 6.4 0.00 0.00 0.00 77 1013.7
20260905150602 29 118 1.6 6.4 0.00 0.00 0.00 78 1013.7
20260905150502 29 149 1.6 6.4 0.00 0.00 0.00 78 1013.7
20260905150402 28 155 1.6 6.4 0.00 0.00 0.00 78 1013.6
20260905150302 28 155 1.6 8.0 0.00 0.00 0.00 78 1013.6
20260905150203 28 180 1.6 8.0 0.00 0.00 0.00 79 1013.6
20260905150002 28 144 1.6 8.0 0.00 0.00 0.00 78 1013.6
20260905145902 28 145 1.6 8.0 0.00 0.00 0.00 79 1013.4
20260905145802 28 63 1.6 8.0 0.00 0.00 0.00 79 1013.4
20260905145702 28 172 1.6 8.0 0.00 0.00 0.00 79 1013.4
20260905145602 28 172 1.6 8.0 0.00 0.00 0.00 79 1013.6
20260905145503 28 173 3.2 8.0 0.00 0.00 0.00 79 1013.4
20260905145403 28 219 3.2 8.0 0.00 0.00 0.00 80 1013.4
20260905145302 28 176 1.6 9.7 0.00 0.00 0.00 79 1013.6
20260905145201 28 161 1.6 9.7 0.00 0.00 0.00 79 1013.6
20260905145103 28 161 3.2 9.7 0.00 0.00 0.00 79 1013.6
20260905145003 28 120 3.2 9.7 0.00 0.00 0.00 80 1013.6
20260905144901 28 192 1.6 9.7 0.00 0.00 0.00 80 1013.6
20260905144801 28 147 3.2 9.7 0.00 0.00 0.00 80 1013.6
20260905144702 28 137 3.2 9.7 0.00 0.00 0.00 80 1013.6
20260905144602 27 190 1.6 9.7 0.00 0.00 0.00 80 1013.6
20260905144502 27 159 3.2 9.7 0.00 0.00 0.00 80 1013.4
20260905144403 27 192 3.2 9.7 0.00 0.00 0.00 80 1013.6
20260905144302 27 141 3.2 8.0 0.00 0.00 0.00 80 1013.6
20260905144202 27 224 3.2 9.7 0.00 0.00 0.00 80 1013.6
20260905144103 27 131 3.2 9.7 0.00 0.00 0.00 80 1013.6
20260905144002 27 128 1.6 9.7 0.00 0.00 0.00 80 1013.6
20260905143902 27 97 0.0 9.7 0.00 0.00 0.00 80 1013.4
20260905143802 27 54 1.6 9.7 0.00 0.00 0.00 80 1013.4
20260905143702 27 173 1.6 9.7 0.00 0.00 0.00 80 1013.4
20260905143602 27 172 3.2 9.7 0.00 0.00 0.00 80 1013.3
20260905143502 27 171 1.6 9.7 0.00 0.00 0.00 80 1013.3
20260905143402 27 180 3.2 9.7 0.00 0.00 0.00 80 1013.3
20260905143302 27 202 3.2 9.7 0.00 0.00 0.00 79 1013.3
20260905143203 27 195 1.6 6.4 0.00 0.00 0.00 79 1013.2
20260905143102 27 221 0.0 4.8 0.00 0.00 0.00 79 1013.3
20260905143002 27 231 0.0 8.0 0.00 0.00 0.00 79 1013.2
20260905142903 27 231 0.0 8.0 0.00 0.00 0.00 79 1013.3
20260905142802 27 231 0.0 8.0 0.00 0.00 0.00 79 1013.3
20260905142702 27 231 0.0 8.0 0.00 0.00 0.00 79 1013.3
20260905142602 27 231 0.0 8.0 0.00 0.00 0.00 79 1013.3
20260905142502 27 231 1.6 8.0 0.00 0.00 0.00 79 1013.3
20260905142403 27 238 1.6 8.0 0.00 0.00 0.00 79 1013.3
20260905142305 27 223 1.6 8.0 0.00 0.00 0.00 79 1013.3
20260905142202 27 224 1.6 8.0 0.00 0.00 0.00 79 1013.4
20260905142102 27 168 1.6 8.0 0.00 0.00 0.00 79 1013.3
20260905142003 27 54 1.6 8.0 0.00 0.00 0.00 79 1013.3
20260905141902 27 168 1.6 8.0 0.00 0.00 0.00 79 1013.3
20260905141803 26 142 3.2 8.0 0.00 0.00 0.00 78 1013.3
20260905141658 26 226 3.2 8.0 0.00 0.00 0.00 78 1013.3
20260905141554 26 176 1.6 8.0 0.00 0.00 0.00 78 1013.3
20260905141453 26 125 1.6 9.7 0.00 0.00 0.00 78 1013.4
20260905141352 26 186 0.0 9.7 0.00 0.00 0.00 77 1013.3
20260905141251 26 188 0.0 9.7 0.00 0.00 0.00 78 1013.4
20260905141148 26 188 1.6 9.7 0.00 0.00 0.00 78 1013.4
20260905141047 26 179 1.6 9.7 0.00 0.00 0.00 77 1013.6
20260905140946 26 127 1.6 9.7 0.00 0.00 0.00 77 1013.4
20260905140844 26 179 0.0 9.7 0.00 0.00 0.00 77 1013.6
20260905140742 26 90 0.0 11.3 0.00 0.00 0.00 77 1013.6
20260905140641 26 90 1.6 11.3 0.00 0.00 0.00 77 1013.7
20260905140540 26 58 0.0 11.3 0.00 0.00 0.00 76 1013.7
20260905140438 26 131 0.0 11.3 0.00 0.00 0.00 76 1013.7
20260905140336 26 80 0.0 11.3 0.00 0.00 0.00 76 1013.8
20260905140235 26 73 0.0 11.3 0.00 0.00 0.00 76 1013.8
20260905140134 26 73 0.0 11.3 0.00 0.00 0.00 76 1013.7
20260905140032 26 73 0.0 11.3 0.00 0.00 0.00 76 1013.7
20260905135931 26 73 3.2 11.3 0.00 0.00 0.00 76 1013.7
20260905135831 26 73 3.2 11.3 0.00 0.00 0.00 76 1013.7
20260905135732 26 85 0.0 9.7 0.00 0.00 0.00 76 1013.7
20260905135632 26 85 0.0 9.7 0.00 0.00 0.00 76 1013.7
20260905135530 26 85 0.0 9.7 0.00 0.00 0.00 76 1013.6
20260905135431 26 85 0.0 9.7 0.00 0.00 0.00 76 1013.6
20260905135329 26 86 0.0 9.7 0.00 0.00 0.00 76 1013.6
20260905135228 26 85 0.0 9.7 0.00 0.00 0.00 76 1013.6
20260905135126 26 85 1.6 9.7 0.00 0.00 0.00 76 1013.6
20260905135024 26 86 3.2 9.7 0.00 0.00 0.00 76 1013.6
20260905134923 26 68 4.8 9.7 0.00 0.00 0.00 76 1013.6
20260905134822 26 39 1.6 9.7 0.00 0.00 0.00 75 1013.4
20260905134720 26 93 0.0 6.4 0.00 0.00 0.00 76 1013.6
20260905134619 26 90 0.0 6.4 0.00 0.00 0.00 76 1013.4
20260905134517 26 90 0.0 6.4 0.00 0.00 0.00 76 1013.4
20260905134416 26 258 0.0 0.0 0.00 0.00 0.00 76 1013.3
20260905134315 26 258 0.0 0.0 0.00 0.00 0.00 76 1013.3
20260905134213 26 258 0.0 0.0 0.00 0.00 0.00 76 1013.2
20260905134113 26 258 0.0 0.0 0.00 0.00 0.00 76 1013.1
20260905134013 26 258 0.0 0.0 0.00 0.00 0.00 76 1013.1
20260905133913 26 258 0.0 0.0 0.00 0.00 0.00 76 1013.1
20260905133813 26 258 0.0 0.0 0.00 0.00 0.00 76 1013.1
20260905133713 26 258 0.0 0.0 0.00 0.00 0.00 75 1013.0
20260905133612 26 258 0.0 0.0 0.00 0.00 0.00 75 1013.1
20260905133510 26 258 0.0 0.0 0.00 0.00 0.00 75 1013.0
20260905133408 26 258 0.0 0.0 0.00 0.00 0.00 75 1013.0
20260905133307 26 258 0.0 0.0 0.00 0.00 0.00 75 1013.0
20260905133202 26 258 0.0 0.0 0.00 0.00 0.00 75 1013.0
20260905133102 26 258 0.0 0.0 0.00 0.00 0.00 75 1013.0
20260905133002 26 258 0.0 0.0 0.00 0.00 0.00 74 1013.0
20260905132902 26 258 0.0 0.0 0.00 0.00 0.00 74 1013.0
20260905132802 26 258 0.0 0.0 0.00 0.00 0.00 74 1013.0
20260905132702 26 258 0.0 0.0 0.00 0.00 0.00 74 1013.1
20260905132603 26 258 0.0 0.0 0.00 0.00 0.00 73 1013.1
20260905132502 26 258 0.0 0.0 0.00 0.00 0.00 73 1013.1
20260905132403 26 258 0.0 0.0 0.00 0.00 0.00 73 1013.1
20260905132305 26 258 0.0 0.0 0.00 0.00 0.00 73 1013.0
20260905132202 25 258 0.0 0.0 0.00 0.00 0.00 73 1013.0
20260905132102 25 258 0.0 0.0 0.00 0.00 0.00 73 1013.0
20260905132002 25 258 0.0 0.0 0.00 0.00 0.00 73 1013.0
20260905131902 25 258 0.0 0.0 0.00 0.00 0.00 73 1013.1
20260905131802 25 258 0.0 0.0 0.00 0.00 0.00 73 1013.0
20260905131702 25 258 0.0 0.0 0.00 0.00 0.00 73 1013.1
20260905131602 25 258 0.0 0.0 0.00 0.00 0.00 73 1013.1
20260905131502 25 258 0.0 0.0 0.00 0.00 0.00 73 1013.1
20260905131402 25 258 0.0 0.0 0.00 0.00 0.00 73 1013.1
20260905131302 25 258 0.0 0.0 0.00 0.00 0.00 73 1013.0
20260905131202 25 258 0.0 0.0 0.00 0.00 0.00 73 1013.1
20260905131102 25 258 0.0 0.0 0.00 0.00 0.00 73 1013.1
20260905131002 25 258 0.0 0.0 0.00 0.00 0.00 73 1013.1
20260905130902 25 258 0.0 0.0 0.00 0.00 0.00 73 1013.0
20260905130802 25 258 0.0 0.0 0.00 0.00 0.00 72 1013.0
20260905130703 25 258 0.0 0.0 0.00 0.00 0.00 72 1013.0
20260905130602 25 258 0.0 0.0 0.00 0.00 0.00 72 1013.1
20260905130502 25 258 0.0 0.0 0.00 0.00 0.00 72 1013.0
20260905130402 25 258 0.0 0.0 0.00 0.00 0.00 72 1013.0
20260905130303 25 258 0.0 0.0 0.00 0.00 0.00 71 1013.0
20260905130202 25 258 0.0 0.0 0.00 0.00 0.00 71 1012.9
20260905130002 25 258 0.0 0.0 0.00 0.00 0.00 70 1013.0
20260905125902 25 258 0.0 0.0 0.00 0.00 0.00 70 1013.0
20260905125802 25 258 0.0 0.0 0.00 0.00 0.00 69 1013.0
20260905125702 25 258 0.0 0.0 0.00 0.00 0.00 69 1013.0
20260905125602 25 258 0.0 0.0 0.00 0.00 0.00 69 1013.0
20260905125503 25 258 0.0 0.0 0.00 0.00 0.00 69 1013.0
20260905125402 25 258 0.0 0.0 0.00 0.00 0.00 69 1013.1
20260905125305 25 258 0.0 0.0 0.00 0.00 0.00 69 1013.0
20260905125202 24 258 0.0 0.0 0.00 0.00 0.00 69 1013.1
20260905125103 24 258 0.0 0.0 0.00 0.00 0.00 69 1013.0
20260905125003 24 258 0.0 0.0 0.00 0.00 0.00 69 1013.0
20260905124902 24 258 0.0 0.0 0.00 0.00 0.00 69 1013.0
20260905124802 24 258 0.0 0.0 0.00 0.00 0.00 69 1013.0
20260905124702 24 258 0.0 0.0 0.00 0.00 0.00 69 1013.0
20260905124602 24 258 0.0 0.0 0.00 0.00 0.00 69 1013.0
20260905124504 24 258 0.0 0.0 0.00 0.00 0.00 69 1012.9
20260905124404 24 258 0.0 0.0 0.00 0.00 0.00 69 1012.9
20260905124303 24 258 0.0 0.0 0.00 0.00 0.00 69 1012.9
20260905124202 24 258 0.0 0.0 0.00 0.00 0.00 69 1012.8
20260905124102 23 258 0.0 0.0 0.00 0.00 0.00 69 1012.8
20260905124003 23 258 0.0 0.0 0.00 0.00 0.00 69 1012.8
20260905123903 23 258 0.0 0.0 0.00 0.00 0.00 69 1012.8
20260905123801 23 258 0.0 0.0 0.00 0.00 0.00 69 1012.8
20260905123702 23 258 0.0 0.0 0.00 0.00 0.00 69 1012.8
20260905123602 23 258 0.0 0.0 0.00 0.00 0.00 69 1012.8
20260905123502 23 258 0.0 0.0 0.00 0.00 0.00 69 1012.8
20260905123402 23 258 0.0 0.0 0.00 0.00 0.00 70 1012.8
20260905123302 23 258 0.0 0.0 0.00 0.00 0.00 70 1012.8
20260905123202 23 258 0.0 0.0 0.00 0.00 0.00 70 1012.8
20260905123103 23 258 0.0 0.0 0.00 0.00 0.00 70 1012.9
20260905123003 23 258 0.0 0.0 0.00 0.00 0.00 70 1012.9
20260905122902 23 258 0.0 0.0 0.00 0.00 0.00 70 1012.9
20260905122802 23 258 0.0 0.0 0.00 0.00 0.00 70 1012.9
20260905122702 23 258 0.0 0.0 0.00 0.00 0.00 70 1012.9
20260905122603 23 258 0.0 0.0 0.00 0.00 0.00 70 1012.9
20260905122502 23 258 0.0 0.0 0.00 0.00 0.00 70 1012.9
20260905122402 23 258 0.0 0.0 0.00 0.00 0.00 70 1012.9
20260905122306 23 258 0.0 0.0 0.00 0.00 0.00 70 1012.9
20260905122202 23 258 0.0 0.0 0.00 0.00 0.00 70 1012.9
20260905122102 23 258 0.0 0.0 0.00 0.00 0.00 70 1012.9
20260905122002 23 258 0.0 0.0 0.00 0.00 0.00 70 1012.9
20260905121902 23 258 0.0 0.0 0.00 0.00 0.00 70 1012.9
20260905121802 23 258 0.0 0.0 0.00 0.00 0.00 70 1012.9
20260905121702 23 258 0.0 0.0 0.00 0.00 0.00 70 1012.9
20260905121602 23 258 0.0 0.0 0.00 0.00 0.00 70 1012.9
20260905121502 23 258 0.0 0.0 0.00 0.00 0.00 70 1012.9
20260905121402 23 258 0.0 0.0 0.00 0.00 0.00 70 1012.9
20260905121302 23 258 0.0 0.0 0.00 0.00 0.00 70 1012.9
20260905121202 23 258 0.0 0.0 0.00 0.00 0.00 70 1012.8
20260905121102 23 258 0.0 0.0 0.00 0.00 0.00 70 1012.8
20260905121002 23 258 0.0 0.0 0.00 0.00 0.00 70 1012.9
20260905120902 23 258 0.0 0.0 0.00 0.00 0.00 70 1012.9
20260905120802 23 258 0.0 0.0 0.00 0.00 0.00 70 1012.9
20260905120702 23 258 0.0 0.0 0.00 0.00 0.00 70 1012.8
20260905120602 23 258 0.0 0.0 0.00 0.00 0.00 70 1012.8
20260905120503 23 258 0.0 0.0 0.00 0.00 0.00 70 1012.8
20260905120403 23 258 0.0 0.0 0.00 0.00 0.00 70 1012.8
20260905120302 23 258 0.0 0.0 0.00 0.00 0.00 70 1012.8
20260905120203 23 258 0.0 0.0 0.00 0.00 0.00 70 1012.8
20260905120004 23 258 0.0 0.0 0.00 0.00 0.00 70 1012.8
20260905115901 23 258 0.0 0.0 0.00 0.00 0.00 70 1012.8
20260905115802 23 258 0.0 0.0 0.00 0.00 0.00 70 1012.8
20260905115702 23 258 0.0 0.0 0.00 0.00 0.00 70 1012.8
20260905115602 23 258 0.0 0.0 0.00 0.00 0.00 70 1012.9
20260905115502 23 258 0.0 0.0 0.00 0.00 0.00 70 1012.8
20260905115402 23 258 0.0 0.0 0.00 0.00 0.00 70 1012.8
20260905115305 23 258 0.0 0.0 0.00 0.00 0.00 70 1012.8
20260905115202 23 258 0.0 0.0 0.00 0.00 0.00 70 1012.8
20260905115103 23 258 0.0 0.0 0.00 0.00 0.00 70 1012.9
20260905115003 23 258 0.0 0.0 0.00 0.00 0.00 70 1012.9
20260905114901 23 258 0.0 0.0 0.00 0.00 0.00 70 1012.8
20260905114803 23 258 0.0 0.0 0.00 0.00 0.00 70 1012.8
20260905114703 23 258 0.0 0.0 0.00 0.00 0.00 70 1012.8
20260905114603 23 258 0.0 0.0 0.00 0.00 0.00 70 1012.8
20260905114503 23 258 0.0 0.0 0.00 0.00 0.00 70 1012.8
20260905114404 23 258 0.0 0.0 0.00 0.00 0.00 70 1012.7
20260905114302 23 258 0.0 0.0 0.00 0.00 0.00 70 1012.7
20260905114202 23 258 0.0 0.0 0.00 0.00 0.00 70 1012.6
20260905114102 23 258 0.0 0.0 0.00 0.00 0.00 70 1012.7
20260905114003 23 258 0.0 0.0 0.00 0.00 0.00 70 1012.7
20260905113902 23 258 0.0 0.0 0.00 0.00 0.00 70 1012.6
20260905113802 23 258 0.0 0.0 0.00 0.00 0.00 70 1012.6
20260905113703 23 258 0.0 0.0 0.00 0.00 0.00 70 1012.6
20260905113601 23 258 0.0 0.0 0.00 0.00 0.00 70 1012.7
20260905113502 23 258 0.0 0.0 0.00 0.00 0.00 70 1012.7
20260905113402 23 258 0.0 0.0 0.00 0.00 0.00 70 1012.7
20260905113302 23 258 0.0 0.0 0.00 0.00 0.00 70 1012.7
20260905113202 23 258 0.0 0.0 0.00 0.00 0.00 70 1012.7
20260905113102 23 258 0.0 0.0 0.00 0.00 0.00 70 1012.7
20260905113003 23 258 0.0 0.0 0.00 0.00 0.00 70 1012.7
20260905112902 23 258 0.0 0.0 0.00 0.00 0.00 70 1012.7
20260905112802 23 258 0.0 0.0 0.00 0.00 0.00 70 1012.8
20260905112702 23 258 0.0 0.0 0.00 0.00 0.00 70 1012.7
20260905112602 23 258 0.0 0.0 0.00 0.00 0.00 70 1012.8
20260905112503 23 258 0.0 0.0 0.00 0.00 0.00 70 1012.8
20260905112402 23 258 0.0 0.0 0.00 0.00 0.00 70 1012.8
20260905112305 23 258 0.0 0.0 0.00 0.00 0.00 70 1012.7
20260905112202 23 258 0.0 0.0 0.00 0.00 0.00 70 1012.7
20260905112103 23 258 0.0 0.0 0.00 0.00 0.00 70 1012.7
20260905112002 23 258 0.0 0.0 0.00 0.00 0.00 70 1012.7
20260905111902 23 258 0.0 0.0 0.00 0.00 0.00 70 1012.7
20260905111803 23 258 0.0 0.0 0.00 0.00 0.00 70 1012.8
20260905111702 23 258 0.0 0.0 0.00 0.00 0.00 70 1012.8
20260905111601 23 258 0.0 0.0 0.00 0.00 0.00 70 1012.8
20260905111500 23 258 0.0 0.0 0.00 0.00 0.00 70 1012.7
20260905111359 23 258 0.0 0.0 0.00 0.00 0.00 70 1012.7
20260905111256 23 258 0.0 0.0 0.00 0.00 0.00 70 1012.7
20260905111155 23 258 0.0 0.0 0.00 0.00 0.00 70 1012.7
20260905111054 23 258 0.0 0.0 0.00 0.00 0.00 70 1012.7
20260905110947 23 258 0.0 0.0 0.00 0.00 0.00 70 1012.7
20260905110845 23 258 0.0 0.0 0.00 0.00 0.00 70 1012.6
20260905110738 23 258 0.0 0.0 0.00 0.00 0.00 70 1012.6
20260905110635 23 258 0.0 0.0 0.00 0.00 0.00 70 1012.6
20260905110533 23 258 0.0 0.0 0.00 0.00 0.00 70 1012.6
20260905110432 23 258 0.0 0.0 0.00 0.00 0.00 70 1012.6
20260905110331 23 258 0.0 0.0 0.00 0.00 0.00 70 1012.6
20260905110231 23 258 0.0 0.0 0.00 0.00 0.00 70 1012.6
20260905110131 23 258 0.0 0.0 0.00 0.00 0.00 70 1012.6
20260905110028 23 258 0.0 0.0 0.00 0.00 0.00 70 1012.6
20260905105928 23 258 0.0 0.0 0.00 0.00 0.00 70 1012.6
20260905105826 23 258 0.0 0.0 0.00 0.00 0.00 70 1012.6
20260905105725 23 258 0.0 0.0 0.00 0.00 0.00 70 1012.6
20260905105623 23 258 0.0 0.0 0.00 0.00 0.00 70 1012.6
20260905105521 23 258 0.0 0.0 0.00 0.00 0.00 70 1012.6
20260905105417 23 258 0.0 0.0 0.00 0.00 0.00 71 1012.6
20260905105315 23 258 0.0 0.0 0.00 0.00 0.00 70 1012.6
20260905105214 23 258 0.0 0.0 0.00 0.00 0.00 71 1012.6
20260905105110 23 258 0.0 0.0 0.00 0.00 0.00 71 1012.5
20260905105008 23 258 0.0 0.0 0.00 0.00 0.00 71 1012.5
20260905104908 23 258 0.0 0.0 0.00 0.00 0.00 71 1012.6
20260905104808 23 258 0.0 0.0 0.00 0.00 0.00 70 1012.5
20260905104708 23 258 0.0 0.0 0.00 0.00 0.00 70 1012.5
20260905104608 23 258 0.0 0.0 0.00 0.00 0.00 70 1012.5
20260905104508 23 258 0.0 0.0 0.00 0.00 0.00 70 1012.5
20260905104408 23 258 0.0 0.0 0.00 0.00 0.00 70 1012.5
20260905104309 23 258 0.0 0.0 0.00 0.00 0.00 70 1012.5
20260905104209 23 258 0.0 0.0 0.00 0.00 0.00 70 1012.5
20260905104108 23 258 0.0 0.0 0.00 0.00 0.00 70 1012.5
20260905104008 23 258 0.0 0.0 0.00 0.00 0.00 70 1012.5
20260905103908 23 258 0.0 0.0 0.00 0.00 0.00 71 1012.6
20260905103808 23 258 0.0 0.0 0.00 0.00 0.00 71 1012.5
20260905103708 23 258 0.0 0.0 0.00 0.00 0.00 71 1012.5
20260905103608 23 258 0.0 0.0 0.00 0.00 0.00 71 1012.6
20260905103508 23 258 0.0 0.0 0.00 0.00 0.00 71 1012.5
20260905103408 23 258 0.0 0.0 0.00 0.00 0.00 71 1012.6
20260905103309 23 258 0.0 0.0 0.00 0.00 0.00 71 1012.5
20260905103208 23 258 0.0 0.0 0.00 0.00 0.00 71 1012.6
20260905103108 23 258 0.0 1.6 0.00 0.00 0.00 71 1012.6
20260905103008 23 258 0.0 1.6 0.00 0.00 0.00 71 1012.6
20260905102908 23 258 0.0 1.6 0.00 0.00 0.00 70 1012.6
20260905102808 23 258 0.0 1.6 0.00 0.00 0.00 70 1012.6
20260905102708 23 258 0.0 1.6 0.00 0.00 0.00 70 1012.6
20260905102608 23 258 0.0 1.6 0.00 0.00 0.00 70 1012.5
20260905102508 23 258 0.0 1.6 0.00 0.00 0.00 70 1012.5
20260905102408 23 258 0.0 1.6 0.00 0.00 0.00 71 1012.5
20260905102308 23 258 0.0 3.2 0.00 0.00 0.00 71 1012.5
20260905102208 23 258 1.6 3.2 0.00 0.00 0.00 71 1012.5
20260905102108 23 258 0.0 3.2 0.00 0.00 0.00 71 1012.5
20260905102008 23 258 0.0 3.2 0.00 0.00 0.00 71 1012.6
20260905101907 23 258 0.0 3.2 0.00 0.00 0.00 71 1012.6
20260905101808 23 258 0.0 3.2 0.00 0.00 0.00 71 1012.5
20260905101708 23 258 0.0 3.2 0.00 0.00 0.00 71 1012.5
20260905101608 23 258 0.0 3.2 0.00 0.00 0.00 70 1012.5
20260905101508 23 258 1.6 3.2 0.00 0.00 0.00 70 1012.6
20260905101408 23 258 1.6 3.2 0.00 0.00 0.00 70 1012.5
20260905101308 23 258 1.6 1.6 0.00 0.00 0.00 70 1012.6
20260905101208 23 258 0.0 1.6 0.00 0.00 0.00 70 1012.6
20260905101108 23 258 0.0 1.6 0.00 0.00 0.00 71 1012.6
20260905101008 23 258 0.0 1.6 0.00 0.00 0.00 71 1012.6
20260905100907 23 258 0.0 3.2 0.00 0.00 0.00 71 1012.5
20260905100808 23 258 0.0 3.2 0.00 0.00 0.00 71 1012.6
20260905100708 23 258 0.0 3.2 0.00 0.00 0.00 71 1012.6
20260905100606 23 258 0.0 3.2 0.00 0.00 0.00 71 1012.5
20260905100507 23 258 0.0 3.2 0.00 0.00 0.00 71 1012.5
20260905100407 23 258 0.0 3.2 0.00 0.00 0.00 71 1012.5
20260905100307 23 258 0.0 3.2 0.00 0.00 0.00 71 1012.6
20260905100207 23 258 0.0 3.2 0.00 0.00 0.00 71 1012.5
20260905100107 23 258 0.0 3.2 0.00 0.00 0.00 71 1012.5
20260905100007 23 258 1.6 3.2 0.00 0.00 0.00 71 1012.5
20260905095908 23 258 1.6 3.2 0.00 0.00 0.00 71 1012.4
20260905095808 23 258 1.6 3.2 0.00 0.00 0.00 71 1012.4
20260905095708 23 258 1.6 3.2 0.00 0.00 0.00 71 1012.5
20260905095607 23 258 0.0 3.2 0.00 0.00 0.00 71 1012.5
20260905095508 23 258 0.0 0.0 0.00 0.00 0.00 71 1012.4
20260905095407 23 258 0.0 0.0 0.00 0.00 0.00 71 1012.5
20260905095307 23 258 0.0 0.0 0.00 0.00 0.00 71 1012.4
20260905095207 23 258 0.0 0.0 0.00 0.00 0.00 71 1012.5
20260905095107 23 258 0.0 0.0 0.00 0.00 0.00 71 1012.5
20260905095007 23 258 0.0 0.0 0.00 0.00 0.00 71 1012.4
20260905094907 23 258 0.0 0.0 0.00 0.00 0.00 71 1012.4
20260905094807 23 258 0.0 0.0 0.00 0.00 0.00 71 1012.5
20260905094707 23 258 0.0 0.0 0.00 0.00 0.00 71 1012.5
20260905094607 23 258 0.0 0.0 0.00 0.00 0.00 71 1012.4
20260905094508 23 258 0.0 0.0 0.00 0.00 0.00 71 1012.4
20260905094408 23 258 0.0 0.0 0.00 0.00 0.00 71 1012.4
20260905094307 23 258 0.0 0.0 0.00 0.00 0.00 71 1012.4
20260905094207 23 258 0.0 0.0 0.00 0.00 0.00 71 1012.4
20260905094107 23 258 0.0 0.0 0.00 0.00 0.00 71 1012.4
20260905094007 23 258 0.0 0.0 0.00 0.00 0.00 71 1012.5
20260905093907 23 258 0.0 0.0 0.00 0.00 0.00 71 1012.5
20260905093807 23 258 0.0 0.0 0.00 0.00 0.00 71 1012.5
20260905093707 23 258 0.0 0.0 0.00 0.00 0.00 71 1012.5
20260905093607 23 258 0.0 0.0 0.00 0.00 0.00 71 1012.5
20260905093506 23 258 0.0 0.0 0.00 0.00 0.00 71 1012.5
20260905093407 23 258 0.0 0.0 0.00 0.00 0.00 71 1012.5
20260905093307 23 258 0.0 0.0 0.00 0.00 0.00 71 1012.4
20260905093207 23 258 0.0 0.0 0.00 0.00 0.00 71 1012.4
20260905093107 23 258 0.0 0.0 0.00 0.00 0.00 71 1012.4
20260905093007 23 258 0.0 0.0 0.00 0.00 0.00 71 1012.4
20260905092907 23 258 0.0 0.0 0.00 0.00 0.00 71 1012.3
20260905092807 23 258 0.0 0.0 0.00 0.00 0.00 71 1012.4
20260905092707 23 258 0.0 0.0 0.00 0.00 0.00 71 1012.3
20260905092607 23 258 0.0 0.0 0.00 0.00 0.00 71 1012.3
20260905092507 23 258 0.0 0.0 0.00 0.00 0.00 71 1012.4
20260905092406 23 258 0.0 0.0 0.00 0.00 0.00 71 1012.3
20260905092306 23 258 0.0 0.0 0.00 0.00 0.00 71 1012.4
20260905092207 23 258 0.0 0.0 0.00 0.00 0.00 71 1012.4
20260905092107 23 258 0.0 0.0 0.00 0.00 0.00 71 1012.3
20260905092006 23 258 0.0 0.0 0.00 0.00 0.00 71 1012.3
20260905091906 23 258 0.0 0.0 0.00 0.00 0.00 71 1012.2
20260905091806 23 258 0.0 0.0 0.00 0.00 0.00 71 1012.3
20260905091706 23 258 0.0 0.0 0.00 0.00 0.00 71 1012.3
20260905091606 23 258 0.0 0.0 0.00 0.00 0.00 71 1012.4
20260905091506 23 258 0.0 0.0 0.00 0.00 0.00 71 1012.3
20260905091406 23 258 0.0 0.0 0.00 0.00 0.00 71 1012.3
20260905091306 23 258 0.0 0.0 0.00 0.00 0.00 71 1012.2
20260905091206 23 258 0.0 0.0 0.00 0.00 0.00 71 1012.2
20260905091106 23 258 0.0 0.0 0.00 0.00 0.00 71 1012.2
20260905091006 23 258 0.0 0.0 0.00 0.00 0.00 71 1012.2
20260905090906 23 258 0.0 0.0 0.00 0.00 0.00 71 1012.2
20260905090806 23 258 0.0 0.0 0.00 0.00 0.00 71 1012.2
20260905090706 23 258 0.0 0.0 0.00 0.00 0.00 70 1012.2
20260905090606 23 258 0.0 0.0 0.00 0.00 0.00 70 1012.2
20260905090506 23 258 0.0 0.0 0.00 0.00 0.00 70 1012.2
20260905090406 23 258 0.0 1.6 0.00 0.00 0.00 70 1012.1
20260905090306 23 258 0.0 1.6 0.00 0.00 0.00 70 1012.2
20260905090206 23 258 0.0 1.6 0.00 0.00 0.00 70 1012.1
20260905090107 23 258 0.0 1.6 0.00 0.00 0.00 70 1012.2
20260905090006 23 258 0.0 1.6 0.00 0.00 0.00 70 1012.2
20260905085906 23 258 0.0 1.6 0.00 0.00 0.00 70 1012.1
20260905085806 23 258 0.0 1.6 0.00 0.00 0.00 70 1012.1
20260905085706 23 258 0.0 1.6 0.00 0.00 0.00 70 1012.1
20260905085606 23 258 0.0 1.6 0.00 0.00 0.00 70 1012.1
20260905085506 23 258 0.0 1.6 0.00 0.00 0.00 70 1012.1
20260905085406 23 258 0.0 1.6 0.00 0.00 0.00 70 1012.1
20260905085306 23 258 0.0 3.2 0.00 0.00 0.00 70 1012.1
20260905085206 23 258 0.0 3.2 0.00 0.00 0.00 70 1012.1
20260905085106 23 258 0.0 6.4 0.00 0.00 0.00 70 1012.0
20260905085006 23 258 0.0 6.4 0.00 0.00 0.00 70 1012.1
20260905084906 23 258 0.0 6.4 0.00 0.00 0.00 70 1012.1
20260905084805 23 258 0.0 6.4 0.00 0.00 0.00 70 1012.0
20260905084705 23 258 0.0 6.4 0.00 0.00 0.00 70 1012.1
20260905084605 23 258 0.0 6.4 0.00 0.00 0.00 70 1012.1
20260905084506 23 258 1.6 6.4 0.00 0.00 0.00 70 1012.0
20260905084406 23 258 0.0 6.4 0.00 0.00 0.00 70 1012.1
20260905084305 23 258 1.6 6.4 0.00 0.00 0.00 70 1012.0
20260905084205 23 258 1.6 6.4 0.00 0.00 0.00 70 1012.1
20260905084104 23 258 0.0 1.6 0.00 0.00 0.00 70 1012.1
20260905084005 23 258 0.0 1.6 0.00 0.00 0.00 70 1012.1
20260905083905 23 258 0.0 1.6 0.00 0.00 0.00 70 1012.0
20260905083805 23 258 0.0 1.6 0.00 0.00 0.00 70 1012.1
20260905083705 23 258 0.0 1.6 0.00 0.00 0.00 70 1012.0
20260905083605 23 258 0.0 1.6 0.00 0.00 0.00 70 1012.1
20260905083505 23 258 0.0 1.6 0.00 0.00 0.00 70 1012.1
20260905083405 23 258 0.0 1.6 0.00 0.00 0.00 70 1012.1
20260905083306 23 258 0.0 1.6 0.00 0.00 0.00 70 1012.1
20260905083206 23 258 0.0 1.6 0.00 0.00 0.00 70 1012.0
20260905083106 23 258 0.0 1.6 0.00 0.00 0.00 70 1012.1
20260905083006 23 258 0.0 3.2 0.00 0.00 0.00 70 1012.1
20260905082906 23 258 0.0 3.2 0.00 0.00 0.00 70 1012.1
20260905082805 23 258 0.0 3.2 0.00 0.00 0.00 70 1012.1
20260905082705 23 258 0.0 3.2 0.00 0.00 0.00 70 1012.0
20260905082605 23 258 0.0 3.2 0.00 0.00 0.00 70 1012.0
20260905082505 23 258 0.0 3.2 0.00 0.00 0.00 70 1012.0
20260905082405 23 258 0.0 3.2 0.00 0.00 0.00 70 1012.1
20260905082307 23 258 0.0 3.2 0.00 0.00 0.00 70 1012.1
20260905082206 23 258 0.0 3.2 0.00 0.00 0.00 70 1012.1
20260905082105 23 258 0.0 3.2 0.00 0.00 0.00 70 1012.0
20260905082005 23 258 0.0 0.0 0.00 0.00 0.00 70 1012.0
20260905081905 23 258 0.0 0.0 0.00 0.00 0.00 70 1012.1
20260905081805 23 258 0.0 0.0 0.00 0.00 0.00 70 1012.0
20260905081705 23 258 0.0 0.0 0.00 0.00 0.00 70 1012.1
20260905081605 23 258 0.0 0.0 0.00 0.00 0.00 70 1012.0
20260905081505 23 258 0.0 0.0 0.00 0.00 0.00 70 1012.0
20260905081405 23 258 0.0 0.0 0.00 0.00 0.00 70 1012.0
20260905081305 23 258 0.0 0.0 0.00 0.00 0.00 70 1012.1
20260905081205 23 258 0.0 0.0 0.00 0.00 0.00 70 1012.1
20260905081105 23 258 0.0 0.0 0.00 0.00 0.00 70 1012.0
20260905081004 23 258 0.0 0.0 0.00 0.00 0.00 70 1012.0
20260905080904 23 258 0.0 0.0 0.00 0.00 0.00 70 1012.0
20260905080806 23 258 0.0 0.0 0.00 0.00 0.00 70 1012.0
20260905080705 23 258 0.0 0.0 0.00 0.00 0.00 70 1011.9
20260905080605 23 258 0.0 0.0 0.00 0.00 0.00 70 1011.9
20260905080505 23 258 0.0 0.0 0.00 0.00 0.00 70 1012.0
20260905080405 23 258 0.0 0.0 0.00 0.00 0.00 70 1011.9
20260905080305 23 258 0.0 0.0 0.00 0.00 0.00 70 1011.9
20260905080204 23 258 0.0 0.0 0.00 0.00 0.00 70 1011.9
20260905080105 23 258 0.0 0.0 0.00 0.00 0.00 70 1011.8
20260905080004 23 258 0.0 0.0 0.00 0.00 0.00 70 1011.9
20260905075905 23 258 0.0 0.0 0.00 0.00 0.00 70 1011.8
20260905075805 23 258 0.0 0.0 0.00 0.00 0.00 71 1011.9
20260905075705 23 258 0.0 0.0 0.00 0.00 0.00 71 1011.8
20260905075605 23 258 0.0 0.0 0.00 0.00 0.00 71 1011.8
20260905075505 23 258 0.0 0.0 0.00 0.00 0.00 71 1011.9
20260905075405 23 258 0.0 0.0 0.00 0.00 0.00 71 1011.9
20260905075306 23 258 0.0 0.0 0.00 0.00 0.00 71 1011.9
20260905075205 23 258 0.0 0.0 0.00 0.00 0.00 71 1011.9
20260905075104 23 258 0.0 0.0 0.00 0.00 0.00 71 1011.9
20260905075004 23 258 0.0 0.0 0.00 0.00 0.00 71 1011.9
20260905074904 23 258 0.0 0.0 0.00 0.00 0.00 71 1011.9
20260905074804 23 258 0.0 0.0 0.00 0.00 0.00 71 1011.9
20260905074704 23 258 0.0 0.0 0.00 0.00 0.00 71 1012.1
20260905074604 23 258 0.0 0.0 0.00 0.00 0.00 71 1011.9
20260905074504 23 258 0.0 0.0 0.00 0.00 0.00 71 1012.0
20260905074405 23 258 0.0 0.0 0.00 0.00 0.00 71 1011.9
20260905074304 23 258 0.0 0.0 0.00 0.00 0.00 71 1012.0
20260905074204 23 258 0.0 0.0 0.00 0.00 0.00 71 1012.0
20260905074104 23 258 0.0 0.0 0.00 0.00 0.00 71 1012.0
20260905074004 23 258 0.0 0.0 0.00 0.00 0.00 71 1012.0
20260905073904 23 258 0.0 0.0 0.00 0.00 0.00 71 1012.0
20260905073804 23 258 0.0 0.0 0.00 0.00 0.00 71 1012.0
20260905073704 23 258 0.0 0.0 0.00 0.00 0.00 71 1012.1
20260905073604 23 258 0.0 0.0 0.00 0.00 0.00 71 1012.0
20260905073504 23 258 0.0 0.0 0.00 0.00 0.00 71 1012.0
20260905073404 23 258 0.0 0.0 0.00 0.00 0.00 71 1012.0
20260905073304 23 258 0.0 0.0 0.00 0.00 0.00 71 1012.0
20260905073204 23 258 0.0 0.0 0.00 0.00 0.00 71 1012.0
20260905073104 23 258 0.0 0.0 0.00 0.00 0.00 71 1012.0
20260905073004 23 258 0.0 0.0 0.00 0.00 0.00 71 1012.0
20260905072904 23 258 0.0 0.0 0.00 0.00 0.00 71 1012.1
20260905072804 23 258 0.0 0.0 0.00 0.00 0.00 71 1012.1
20260905072704 23 258 0.0 0.0 0.00 0.00 0.00 71 1012.1
20260905072604 23 258 0.0 0.0 0.00 0.00 0.00 71 1012.2
20260905072504 23 258 0.0 0.0 0.00 0.00 0.00 71 1012.2
20260905072404 23 258 0.0 0.0 0.00 0.00 0.00 71 1012.2
20260905072306 23 258 0.0 0.0 0.00 0.00 0.00 71 1012.2
20260905072204 23 258 0.0 0.0 0.00 0.00 0.00 71 1012.2
20260905072103 23 258 0.0 0.0 0.00 0.00 0.00 71 1012.2
20260905072004 23 258 0.0 0.0 0.00 0.00 0.00 71 1012.2
20260905071904 23 258 0.0 0.0 0.00 0.00 0.00 71 1012.1
20260905071804 23 258 0.0 0.0 0.00 0.00 0.00 71 1012.2
20260905071704 23 258 0.0 0.0 0.00 0.00 0.00 71 1012.2
20260905071603 23 258 0.0 0.0 0.00 0.00 0.00 71 1012.2
20260905071503 23 258 0.0 0.0 0.00 0.00 0.00 71 1012.2
20260905071404 23 258 0.0 0.0 0.00 0.00 0.00 71 1012.2
20260905071304 23 258 0.0 0.0 0.00 0.00 0.00 71 1012.2
20260905071204 23 258 0.0 0.0 0.00 0.00 0.00 71 1012.2
20260905071102 23 258 0.0 0.0 0.00 0.00 0.00 71 1012.2
20260905071003 23 258 0.0 0.0 0.00 0.00 0.00 71 1012.2
20260905070903 23 258 0.0 0.0 0.00 0.00 0.00 71 1012.2
20260905070803 23 258 0.0 0.0 0.00 0.00 0.00 71 1012.3
20260905070702 23 258 0.0 0.0 0.00 0.00 0.00 71 1012.2
20260905070603 23 258 0.0 0.0 0.00 0.00 0.00 71 1012.2
20260905070503 23 258 0.0 0.0 0.00 0.00 0.00 71 1012.2
20260905070403 23 258 0.0 0.0 0.00 0.00 0.00 71 1012.3
20260905070303 23 258 0.0 0.0 0.00 0.00 0.00 71 1012.3
20260905070203 23 258 0.0 0.0 0.00 0.00 0.00 71 1012.3
20260905070104 23 258 0.0 0.0 0.00 0.00 0.00 71 1012.3
20260905070004 23 258 0.0 1.6 0.00 0.00 0.00 72 1012.3
20260905065903 23 258 0.0 1.6 0.00 0.00 0.00 72 1012.4
20260905065803 23 258 0.0 1.6 0.00 0.00 0.00 72 1012.3
20260905065703 24 258 0.0 1.6 0.00 0.00 0.00 72 1012.4
20260905065603 24 258 0.0 1.6 0.00 0.00 0.00 72 1012.4
20260905065503 24 258 0.0 1.6 0.00 0.00 0.00 72 1012.4
20260905065403 24 258 0.0 1.6 0.00 0.00 0.00 72 1012.4
20260905065306 24 258 0.0 1.6 0.00 0.00 0.00 72 1012.5
20260905065203 24 258 0.0 1.6 0.00 0.00 0.00 72 1012.5
20260905065103 24 258 0.0 1.6 0.00 0.00 0.00 72 1012.4
20260905065003 24 258 0.0 0.0 0.00 0.00 0.00 72 1012.5
20260905064904 24 258 0.0 0.0 0.00 0.00 0.00 72 1012.4
20260905064803 24 258 0.0 0.0 0.00 0.00 0.00 72 1012.4
20260905064703 24 258 0.0 0.0 0.00 0.00 0.00 72 1012.4
20260905064602 24 258 0.0 0.0 0.00 0.00 0.00 72 1012.5
20260905064503 24 258 0.0 0.0 0.00 0.00 0.00 72 1012.4
20260905064403 24 258 0.0 0.0 0.00 0.00 0.00 72 1012.4
20260905064303 24 258 0.0 0.0 0.00 0.00 0.00 72 1012.4
20260905064203 24 258 0.0 0.0 0.00 0.00 0.00 72 1012.5
20260905064103 24 258 0.0 0.0 0.00 0.00 0.00 72 1012.5
20260905064003 24 258 0.0 0.0 0.00 0.00 0.00 72 1012.4
20260905063903 24 258 0.0 0.0 0.00 0.00 0.00 72 1012.5
20260905063803 24 258 0.0 0.0 0.00 0.00 0.00 72 1012.5
20260905063703 24 258 0.0 0.0 0.00 0.00 0.00 72 1012.5
20260905063602 24 258 0.0 0.0 0.00 0.00 0.00 72 1012.5
20260905063502 24 258 0.0 0.0 0.00 0.00 0.00 72 1012.5
20260905063402 24 258 0.0 0.0 0.00 0.00 0.00 72 1012.5
20260905063259 24 258 0.0 0.0 0.00 0.00 0.00 72 1012.4
20260905063158 24 258 0.0 0.0 0.00 0.00 0.00 72 1012.4
20260905063057 24 258 0.0 0.0 0.00 0.00 0.00 72 1012.4
20260905062955 24 258 0.0 0.0 0.00 0.00 0.00 72 1012.4
20260905062854 24 258 0.0 0.0 0.00 0.00 0.00 72 1012.4
20260905062753 24 258 0.0 0.0 0.00 0.00 0.00 72 1012.5
20260905062650 24 258 0.0 0.0 0.00 0.00 0.00 72 1012.4
20260905062549 24 258 0.0 0.0 0.00 0.00 0.00 72 1012.3
20260905062448 24 258 0.0 0.0 0.00 0.00 0.00 72 1012.3
20260905062346 24 258 0.0 0.0 0.00 0.00 0.00 72 1012.4
20260905062245 24 258 0.0 0.0 0.00 0.00 0.00 72 1012.5
20260905062143 24 258 0.0 0.0 0.00 0.00 0.00 72 1012.5
20260905062041 24 258 0.0 0.0 0.00 0.00 0.00 71 1012.5
20260905061940 24 258 0.0 0.0 0.00 0.00 0.00 71 1012.5
20260905061839 24 258 0.0 0.0 0.00 0.00 0.00 71 1012.4
20260905061738 24 258 0.0 0.0 0.00 0.00 0.00 72 1012.5
20260905061636 24 258 0.0 0.0 0.00 0.00 0.00 72 1012.5
20260905061534 24 258 0.0 0.0 0.00 0.00 0.00 71 1012.4
20260905061432 24 258 0.0 0.0 0.00 0.00 0.00 71 1012.5
20260905061331 24 258 0.0 0.0 0.00 0.00 0.00 71 1012.5
20260905061230 25 258 0.0 0.0 0.00 0.00 0.00 71 1012.5
20260905061130 24 258 0.0 0.0 0.00 0.00 0.00 71 1012.5
20260905061030 25 258 0.0 0.0 0.00 0.00 0.00 71 1012.5
20260905060930 25 258 0.0 0.0 0.00 0.00 0.00 72 1012.5
20260905060829 25 258 0.0 0.0 0.00 0.00 0.00 72 1012.5
20260905060728 25 258 0.0 0.0 0.00 0.00 0.00 72 1012.6
20260905060625 25 258 0.0 0.0 0.00 0.00 0.00 72 1012.5
20260905060524 25 258 0.0 0.0 0.00 0.00 0.00 72 1012.5
20260905060423 25 258 0.0 0.0 0.00 0.00 0.00 72 1012.6
20260905060322 25 258 0.0 0.0 0.00 0.00 0.00 72 1012.6
20260905060220 25 258 0.0 0.0 0.00 0.00 0.00 72 1012.6
20260905060118 25 258 0.0 0.0 0.00 0.00 0.00 72 1012.5
20260905060017 25 258 0.0 0.0 0.00 0.00 0.00 72 1012.6
20260905055915 25 258 0.0 0.0 0.00 0.00 0.00 72 1012.5
20260905055814 25 258 0.0 0.0 0.00 0.00 0.00 72 1012.5
20260905055713 25 258 0.0 0.0 0.00 0.00 0.00 72 1012.5
20260905055610 25 258 0.0 0.0 0.00 0.00 0.00 72 1012.5
20260905055509 25 258 0.0 0.0 0.00 0.00 0.00 72 1012.5
20260905055408 25 258 0.0 0.0 0.00 0.00 0.00 72 1012.6
20260905055306 25 258 0.0 0.0 0.00 0.00 0.00 72 1012.5
20260905055203 25 258 0.0 0.0 0.00 0.00 0.00 72 1012.6
20260905055103 25 258 0.0 0.0 0.00 0.00 0.00 72 1012.6
20260905055001 25 258 0.0 0.0 0.00 0.00 0.00 72 1012.5
20260905054902 25 258 0.0 1.6 0.00 0.00 0.00 72 1012.5
20260905054802 25 258 0.0 1.6 0.00 0.00 0.00 72 1012.5
20260905054703 25 258 0.0 1.6 0.00 0.00 0.00 72 1012.5
20260905054602 25 258 0.0 1.6 0.00 0.00 0.00 72 1012.5
20260905054503 25 258 0.0 1.6 0.00 0.00 0.00 72 1012.5
20260905054403 25 258 0.0 1.6 0.00 0.00 0.00 72 1012.5
20260905054301 25 258 0.0 1.6 0.00 0.00 0.00 72 1012.5
20260905054202 25 258 0.0 1.6 0.00 0.00 0.00 72 1012.5
20260905054102 25 258 0.0 1.6 0.00 0.00 0.00 72 1012.5
20260905054002 25 258 0.0 1.6 0.00 0.00 0.00 72 1012.5
20260905053902 25 258 0.0 1.6 0.00 0.00 0.00 72 1012.6
20260905053802 25 258 0.0 1.6 0.00 0.00 0.00 72 1012.5
20260905053702 25 258 1.6 1.6 0.00 0.00 0.00 72 1012.5
20260905053603 25 258 0.0 1.6 0.00 0.00 0.00 72 1012.6
20260905053502 25 258 0.0 1.6 0.00 0.00 0.00 72 1012.6
20260905053402 25 258 0.0 1.6 0.00 0.00 0.00 72 1012.5
20260905053303 25 258 0.0 1.6 0.00 0.00 0.00 72 1012.5
20260905053203 25 258 0.0 1.6 0.00 0.00 0.00 72 1012.5
20260905053101 25 258 0.0 1.6 0.00 0.00 0.00 72 1012.5
20260905053002 25 258 0.0 1.6 0.00 0.00 0.00 72 1012.5
20260905052902 25 258 0.0 1.6 0.00 0.00 0.00 72 1012.5
20260905052802 25 258 0.0 1.6 0.00 0.00 0.00 72 1012.5
20260905052702 25 258 0.0 1.6 0.00 0.00 0.00 72 1012.6
20260905052602 25 258 0.0 1.6 0.00 0.00 0.00 72 1012.5
20260905052502 25 258 0.0 1.6 0.00 0.00 0.00 72 1012.5
20260905052402 25 258 0.0 0.0 0.00 0.00 0.00 72 1012.6
20260905052306 25 258 0.0 0.0 0.00 0.00 0.00 72 1012.6
20260905052202 25 258 0.0 0.0 0.00 0.00 0.00 72 1012.6
20260905052101 25 258 0.0 1.6 0.00 0.00 0.00 72 1012.5
20260905052001 25 258 0.0 1.6 0.00 0.00 0.00 72 1012.5
20260905051901 25 258 0.0 1.6 0.00 0.00 0.00 72 1012.6
20260905051801 25 258 0.0 1.6 0.00 0.00 0.00 72 1012.5
20260905051701 25 258 0.0 1.6 0.00 0.00 0.00 72 1012.5
20260905051601 25 258 0.0 1.6 0.00 0.00 0.00 72 1012.6
20260905051501 25 258 0.0 1.6 0.00 0.00 0.00 72 1012.5
20260905051401 25 258 0.0 1.6 0.00 0.00 0.00 72 1012.5
20260905051301 25 258 0.0 1.6 0.00 0.00 0.00 72 1012.6
20260905051200 25 258 0.0 1.6 0.00 0.00 0.00 73 1012.6
20260905051100 25 258 0.0 1.6 0.00 0.00 0.00 73 1012.6
20260905051001 25 258 0.0 1.6 0.00 0.00 0.00 73 1012.6
20260905050901 25 258 0.0 1.6 0.00 0.00 0.00 73 1012.6
20260905050801 25 258 0.0 1.6 0.00 0.00 0.00 73 1012.6
20260905050701 25 258 0.0 0.0 0.00 0.00 0.00 73 1012.6
20260905050601 25 258 0.0 0.0 0.00 0.00 0.00 72 1012.7
20260905050501 25 258 0.0 0.0 0.00 0.00 0.00 72 1012.6
20260905050401 25 258 0.0 0.0 0.00 0.00 0.00 73 1012.7
20260905050301 25 258 0.0 0.0 0.00 0.00 0.00 73 1012.6
20260905050201 25 258 0.0 0.0 0.00 0.00 0.00 73 1012.7
20260905050101 25 258 0.0 0.0 0.00 0.00 0.00 73 1012.7
20260905050000 25 258 0.0 0.0 0.00 0.00 0.00 73 1012.7
20260905045900 25 258 0.0 0.0 0.00 0.00 0.00 73 1012.6
20260905045800 25 258 0.0 0.0 0.00 0.00 0.00 73 1012.7
20260905045700 25 258 0.0 0.0 0.00 0.00 0.00 73 1012.7
20260905045600 25 258 0.0 0.0 0.00 0.00 0.00 73 1012.7
20260905045500 25 258 0.0 0.0 0.00 0.00 0.00 73 1012.7
20260905045400 25 258 0.0 0.0 0.00 0.00 0.00 73 1012.7
20260905045300 25 258 0.0 0.0 0.00 0.00 0.00 73 1012.7
20260905045200 25 258 0.0 0.0 0.00 0.00 0.00 73 1012.8
20260905045100 25 258 0.0 0.0 0.00 0.00 0.00 73 1012.7
20260905045000 25 258 0.0 0.0 0.00 0.00 0.00 73 1012.7
20260905044900 25 258 0.0 0.0 0.00 0.00 0.00 73 1012.8
20260905044800 25 258 0.0 0.0 0.00 0.00 0.00 73 1012.8
20260905044700 25 258 0.0 0.0 0.00 0.00 0.00 73 1012.7
20260905044600 25 258 0.0 0.0 0.00 0.00 0.00 73 1012.7
20260905044502 25 258 0.0 0.0 0.00 0.00 0.00 73 1012.7
20260905044401 25 258 0.0 0.0 0.00 0.00 0.00 72 1012.7
20260905044300 25 258 0.0 0.0 0.00 0.00 0.00 72 1012.7
20260905044200 25 258 0.0 0.0 0.00 0.00 0.00 72 1012.7
20260905044100 25 258 0.0 1.6 0.00 0.00 0.00 72 1012.7
20260905044000 25 258 0.0 1.6 0.00 0.00 0.00 72 1012.7
20260905043900 25 258 0.0 1.6 0.00 0.00 0.00 72 1012.7
20260905043800 25 258 0.0 1.6 0.00 0.00 0.00 72 1012.7
20260905043700 25 258 0.0 1.6 0.00 0.00 0.00 72 1012.8
20260905043600 25 258 0.0 1.6 0.00 0.00 0.00 73 1012.8
20260905043500 25 258 0.0 1.6 0.00 0.00 0.00 73 1012.7
20260905043400 25 258 0.0 1.6 0.00 0.00 0.00 72 1012.8
20260905043300 25 258 0.0 1.6 0.00 0.00 0.00 72 1012.8
20260905043200 25 258 0.0 1.6 0.00 0.00 0.00 73 1012.8
20260905043100 25 258 0.0 1.6 0.00 0.00 0.00 73 1012.8
20260905043000 25 258 0.0 1.6 0.00 0.00 0.00 73 1012.8
20260905042900 25 258 0.0 1.6 0.00 0.00 0.00 73 1012.8
20260905042800 25 258 0.0 1.6 0.00 0.00 0.00 73 1012.9
20260905042700 25 258 0.0 1.6 0.00 0.00 0.00 73 1012.9
20260905042600 25 258 0.0 1.6 0.00 0.00 0.00 73 1012.9
20260905042500 25 258 0.0 0.0 0.00 0.00 0.00 73 1013.0
20260905042400 25 258 0.0 0.0 0.00 0.00 0.00 73 1013.0
20260905042300 25 258 0.0 0.0 0.00 0.00 0.00 73 1013.0
20260905042200 25 258 0.0 0.0 0.00 0.00 0.00 73 1012.9
20260905042059 25 258 0.0 0.0 0.00 0.00 0.00 73 1013.0
20260905041959 25 258 0.0 0.0 0.00 0.00 0.00 73 1013.1
20260905041859 25 258 0.0 0.0 0.00 0.00 0.00 73 1013.1
20260905041759 25 258 0.0 0.0 0.00 0.00 0.00 73 1013.1
20260905041659 25 258 0.0 0.0 0.00 0.00 0.00 73 1013.1
20260905041618 25 258 0.0 0.0 0.00 0.00 0.00 74 1013.0
20260905041459 25 258 0.0 0.0 0.00 0.00 0.00 74 1013.0
20260905041359 25 258 0.0 0.0 0.00 0.00 0.00 74 1013.1
20260905041259 25 258 0.0 0.0 0.00 0.00 0.00 74 1013.1
20260905041159 25 258 0.0 0.0 0.00 0.00 0.00 74 1013.1
20260905041059 25 258 0.0 0.0 0.00 0.00 0.00 74 1013.1
20260905040959 25 258 0.0 0.0 0.00 0.00 0.00 74 1013.1
20260905040859 25 258 0.0 0.0 0.00 0.00 0.00 74 1013.0
20260905040759 25 258 0.0 0.0 0.00 0.00 0.00 74 1013.1
20260905040659 26 258 0.0 0.0 0.00 0.00 0.00 74 1013.0
20260905040559 26 258 0.0 0.0 0.00 0.00 0.00 73 1013.0
20260905040459 26 258 0.0 0.0 0.00 0.00 0.00 73 1013.0
20260905040359 26 258 0.0 0.0 0.00 0.00 0.00 74 1013.0
20260905040259 26 258 0.0 0.0 0.00 0.00 0.00 73 1013.0
20260905040159 26 258 0.0 0.0 0.00 0.00 0.00 73 1013.0
20260905040059 26 258 0.0 0.0 0.00 0.00 0.00 74 1012.9
20260905035959 26 258 0.0 0.0 0.00 0.00 0.00 74 1013.0
20260905035859 26 258 0.0 0.0 0.00 0.00 0.00 74 1012.9
20260905035759 26 258 0.0 0.0 0.00 0.00 0.00 74 1013.0
20260905035659 26 258 0.0 1.6 0.00 0.00 0.00 74 1013.0
20260905035559 26 258 0.0 1.6 0.00 0.00 0.00 73 1012.9
20260905035459 26 258 0.0 1.6 0.00 0.00 0.00 73 1013.0
20260905035359 26 258 0.0 1.6 0.00 0.00 0.00 73 1012.9
20260905035259 26 258 0.0 1.6 0.00 0.00 0.00 73 1013.0
20260905035158 26 258 0.0 1.6 0.00 0.00 0.00 73 1013.0
20260905035058 26 258 0.0 1.6 0.00 0.00 0.00 73 1013.0
20260905034958 26 258 0.0 1.6 0.00 0.00 0.00 74 1013.0
20260905034858 26 258 0.0 1.6 0.00 0.00 0.00 74 1013.1
20260905034759 26 258 0.0 1.6 0.00 0.00 0.00 74 1013.0
20260905034659 26 258 0.0 1.6 0.00 0.00 0.00 74 1013.0
20260905034559 26 258 0.0 1.6 0.00 0.00 0.00 74 1013.0
20260905034459 26 258 0.0 1.6 0.00 0.00 0.00 74 1013.0
20260905034359 26 258 0.0 1.6 0.00 0.00 0.00 74 1013.0
20260905034259 26 258 0.0 1.6 0.00 0.00 0.00 74 1013.0
20260905034159 26 258 0.0 0.0 0.00 0.00 0.00 74 1013.0
20260905034058 26 258 0.0 0.0 0.00 0.00 0.00 74 1013.0
20260905033958 26 258 0.0 0.0 0.00 0.00 0.00 74 1013.0
20260905033857 26 258 0.0 0.0 0.00 0.00 0.00 74 1013.0
20260905033758 26 258 0.0 0.0 0.00 0.00 0.00 74 1013.0
20260905033658 26 258 0.0 0.0 0.00 0.00 0.00 74 1013.1
20260905033558 26 258 0.0 0.0 0.00 0.00 0.00 74 1013.0
20260905033458 26 258 0.0 0.0 0.00 0.00 0.00 74 1013.1
20260905033358 26 258 0.0 0.0 0.00 0.00 0.00 74 1013.1
20260905033258 26 258 0.0 0.0 0.00 0.00 0.00 74 1013.1
20260905033158 26 258 0.0 0.0 0.00 0.00 0.00 74 1013.2
20260905033058 26 258 0.0 0.0 0.00 0.00 0.00 74 1013.1
20260905032958 26 258 0.0 0.0 0.00 0.00 0.00 74 1013.0
20260905032858 26 258 0.0 0.0 0.00 0.00 0.00 75 1013.0
20260905032758 26 258 0.0 0.0 0.00 0.00 0.00 75 1013.1
20260905032658 26 258 0.0 0.0 0.00 0.00 0.00 75 1013.1
20260905032558 26 258 0.0 0.0 0.00 0.00 0.00 75 1013.0
20260905032458 26 258 0.0 0.0 0.00 0.00 0.00 75 1013.1
20260905032358 26 258 0.0 0.0 0.00 0.00 0.00 75 1013.0
20260905032258 26 258 0.0 0.0 0.00 0.00 0.00 74 1013.1
20260905032158 26 258 0.0 0.0 0.00 0.00 0.00 75 1013.1
20260905032058 26 258 0.0 0.0 0.00 0.00 0.00 75 1013.0
20260905031958 26 258 0.0 0.0 0.00 0.00 0.00 75 1013.0
20260905031858 26 258 0.0 0.0 0.00 0.00 0.00 75 1013.0
20260905031758 26 258 0.0 0.0 0.00 0.00 0.00 75 1013.1
20260905031658 26 258 0.0 0.0 0.00 0.00 0.00 75 1013.1
20260905031558 26 258 0.0 0.0 0.00 0.00 0.00 75 1013.1
20260905031458 26 258 0.0 0.0 0.00 0.00 0.00 75 1013.1
20260905031358 26 258 0.0 0.0 0.00 0.00 0.00 75 1013.1
20260905031258 26 258 0.0 0.0 0.00 0.00 0.00 75 1013.1
20260905031158 26 258 0.0 0.0 0.00 0.00 0.00 75 1013.0
20260905031058 26 258 0.0 0.0 0.00 0.00 0.00 75 1013.1
20260905030958 26 258 0.0 0.0 0.00 0.00 0.00 75 1013.1
20260905030858 26 258 0.0 0.0 0.00 0.00 0.00 75 1013.0
20260905030758 26 258 0.0 0.0 0.00 0.00 0.00 75 1013.1
20260905030658 26 258 0.0 0.0 0.00 0.00 0.00 75 1013.1
20260905030558 26 258 0.0 0.0 0.00 0.00 0.00 75 1013.1
20260905030458 26 258 0.0 0.0 0.00 0.00 0.00 75 1013.1
20260905030358 26 258 0.0 0.0 0.00 0.00 0.00 75 1013.2
20260905030258 26 258 0.0 0.0 0.00 0.00 0.00 75 1013.1
20260905030158 26 258 0.0 0.0 0.00 0.00 0.00 74 1013.1
20260905030058 26 258 0.0 0.0 0.00 0.00 0.00 74 1013.1
20260905025958 26 258 0.0 0.0 0.00 0.00 0.00 75 1013.1
20260905025858 26 258 0.0 0.0 0.00 0.00 0.00 75 1013.1
20260905025758 26 258 0.0 0.0 0.00 0.00 0.00 75 1013.0
20260905025658 26 258 0.0 0.0 0.00 0.00 0.00 75 1013.0
20260905025558 26 258 0.0 0.0 0.00 0.00 0.00 75 1013.0
20260905025458 26 258 0.0 0.0 0.00 0.00 0.00 75 1013.0
20260905025356 26 258 0.0 0.0 0.00 0.00 0.00 75 1013.0
20260905025257 26 258 0.0 0.0 0.00 0.00 0.00 75 1013.0
20260905025157 26 258 0.0 0.0 0.00 0.00 0.00 75 1013.0
20260905025057 26 258 0.0 0.0 0.00 0.00 0.00 75 1012.9
20260905024957 26 258 0.0 0.0 0.00 0.00 0.00 75 1013.0
20260905024857 26 258 0.0 0.0 0.00 0.00 0.00 75 1013.0
20260905024757 26 258 0.0 0.0 0.00 0.00 0.00 75 1012.9
20260905024657 26 258 0.0 0.0 0.00 0.00 0.00 75 1012.9
20260905024557 26 258 0.0 0.0 0.00 0.00 0.00 75 1012.9
20260905024458 26 258 0.0 0.0 0.00 0.00 0.00 75 1012.9
20260905024357 26 258 0.0 0.0 0.00 0.00 0.00 75 1012.9
20260905024257 26 258 0.0 0.0 0.00 0.00 0.00 75 1012.9
20260905024157 26 258 0.0 0.0 0.00 0.00 0.00 75 1013.0
20260905024053 26 258 0.0 0.0 0.00 0.00 0.00 75 1013.0
20260905023948 26 258 0.0 0.0 0.00 0.00 0.00 76 1012.9
20260905023847 26 258 0.0 0.0 0.00 0.00 0.00 76 1012.9
20260905023746 26 258 0.0 0.0 0.00 0.00 0.00 76 1012.9
20260905023645 26 258 0.0 0.0 0.00 0.00 0.00 76 1012.9
20260905023542 26 258 0.0 0.0 0.00 0.00 0.00 76 1012.8
20260905023441 26 258 0.0 0.0 0.00 0.00 0.00 76 1012.8
20260905023340 26 258 0.0 0.0 0.00 0.00 0.00 76 1012.8
20260905023238 26 258 0.0 0.0 0.00 0.00 0.00 76 1012.9
20260905023137 27 258 0.0 0.0 0.00 0.00 0.00 76 1012.9
20260905023035 27 258 0.0 0.0 0.00 0.00 0.00 76 1012.8
20260905022934 27 258 0.0 0.0 0.00 0.00 0.00 76 1012.9
20260905022832 27 258 0.0 0.0 0.00 0.00 0.00 76 1012.8
20260905022731 27 258 0.0 0.0 0.00 0.00 0.00 76 1012.8
20260905022631 27 258 0.0 0.0 0.00 0.00 0.00 76 1012.8
20260905022532 27 258 0.0 0.0 0.00 0.00 0.00 76 1012.9
20260905022431 27 258 0.0 0.0 0.00 0.00 0.00 76 1012.7
20260905022330 27 258 0.0 0.0 0.00 0.00 0.00 76 1012.8
20260905022228 27 258 0.0 0.0 0.00 0.00 0.00 76 1012.7
20260905022127 27 258 0.0 0.0 0.00 0.00 0.00 76 1012.8
20260905022022 27 258 0.0 0.0 0.00 0.00 0.00 76 1012.8
20260905021921 27 258 0.0 0.0 0.00 0.00 0.00 76 1012.8
20260905021815 27 258 0.0 0.0 0.00 0.00 0.00 76 1012.8
20260905021713 27 258 0.0 0.0 0.00 0.00 0.00 76 1012.8
20260905021609 27 258 0.0 0.0 0.00 0.00 0.00 76 1012.7
20260905021507 27 258 0.0 0.0 0.00 0.00 0.00 76 1012.9
20260905021406 27 258 0.0 0.0 0.00 0.00 0.00 76 1012.8
20260905021305 27 258 0.0 0.0 0.00 0.00 0.00 76 1012.8
20260905021203 27 258 0.0 0.0 0.00 0.00 0.00 77 1012.8
20260905021102 27 258 0.0 0.0 0.00 0.00 0.00 76 1012.7
20260905021002 27 258 0.0 0.0 0.00 0.00 0.00 76 1012.7
20260905020902 27 258 0.0 0.0 0.00 0.00 0.00 77 1012.8
20260905020802 27 258 0.0 0.0 0.00 0.00 0.00 77 1012.8
20260905020702 27 258 0.0 0.0 0.00 0.00 0.00 77 1012.7
20260905020602 27 258 0.0 0.0 0.00 0.00 0.00 77 1012.7
20260905020502 27 258 0.0 0.0 0.00 0.00 0.00 77 1012.7
20260905020403 27 258 0.0 0.0 0.00 0.00 0.00 77 1012.8
20260905020302 27 258 0.0 0.0 0.00 0.00 0.00 77 1012.8
20260905020202 27 258 0.0 0.0 0.00 0.00 0.00 77 1012.8
20260905020002 27 258 0.0 0.0 0.00 0.00 0.00 77 1012.8
20260905015902 27 258 0.0 0.0 0.00 0.00 0.00 77 1012.8
20260905015802 27 258 0.0 0.0 0.00 0.00 0.00 77 1012.9
20260905015702 27 258 0.0 0.0 0.00 0.00 0.00 77 1012.9
20260905015603 27 258 0.0 0.0 0.00 0.00 0.00 77 1012.8
20260905015503 27 258 0.0 0.0 0.00 0.00 0.00 77 1012.8
20260905015401 27 258 0.0 0.0 0.00 0.00 0.00 77 1012.8
20260905015306 27 258 0.0 0.0 0.00 0.00 0.00 77 1012.8
20260905015202 27 258 0.0 0.0 0.00 0.00 0.00 77 1012.8
20260905015102 27 258 0.0 0.0 0.00 0.00 0.00 77 1012.8
20260905015002 27 258 0.0 0.0 0.00 0.00 0.00 77 1012.7
20260905014902 27 258 0.0 0.0 0.00 0.00 0.00 78 1012.8
20260905014802 27 258 0.0 0.0 0.00 0.00 0.00 78 1012.8
20260905014703 27 258 0.0 0.0 0.00 0.00 0.00 78 1012.8
20260905014602 27 258 0.0 0.0 0.00 0.00 0.00 78 1012.8
20260905014503 27 258 0.0 0.0 0.00 0.00 0.00 78 1012.8
20260905014401 27 258 0.0 0.0 0.00 0.00 0.00 78 1012.7
20260905014302 27 258 0.0 0.0 0.00 0.00 0.00 78 1012.7
20260905014202 27 258 0.0 0.0 0.00 0.00 0.00 78 1012.7
20260905014102 27 258 0.0 0.0 0.00 0.00 0.00 78 1012.7
20260905014003 27 258 0.0 0.0 0.00 0.00 0.00 78 1012.7
20260905013902 27 258 0.0 0.0 0.00 0.00 0.00 78 1012.7
20260905013801 27 258 0.0 0.0 0.00 0.00 0.00 79 1012.7
20260905013702 27 258 0.0 0.0 0.00 0.00 0.00 79 1012.6
20260905013602 27 258 0.0 0.0 0.00 0.00 0.00 79 1012.7
20260905013502 27 258 0.0 0.0 0.00 0.00 0.00 79 1012.6
20260905013402 27 258 0.0 0.0 0.00 0.00 0.00 79 1012.6
20260905013302 27 258 0.0 0.0 0.00 0.00 0.00 79 1012.7
20260905013202 27 258 0.0 0.0 0.00 0.00 0.00 79 1012.6
20260905013102 27 258 0.0 0.0 0.00 0.00 0.00 79 1012.6
20260905012959 27 258 0.0 0.0 0.00 0.00 0.00 79 1012.6
20260905012858 27 258 0.0 1.6 0.00 0.00 0.00 79 1012.6
20260905012756 27 258 0.0 3.2 0.00 0.00 0.00 79 1012.6
20260905012656 27 258 0.0 3.2 0.00 0.00 0.00 79 1012.6
20260905012556 27 258 0.0 3.2 0.00 0.00 0.00 79 1012.5
20260905012455 27 258 0.0 4.8 0.00 0.00 0.00 79 1012.6
20260905012355 28 258 0.0 4.8 0.00 0.00 0.00 79 1012.6
20260905012255 28 258 0.0 4.8 0.00 0.00 0.00 79 1012.5
20260905012155 28 258 0.0 4.8 0.00 0.00 0.00 79 1012.6
20260905012055 28 258 0.0 4.8 0.00 0.00 0.00 79 1012.6
20260905011956 28 258 1.6 4.8 0.00 0.00 0.00 79 1012.5
20260905011855 28 258 1.6 4.8 0.00 0.00 0.00 79 1012.5
20260905011756 28 258 1.6 4.8 0.00 0.00 0.00 79 1012.6
20260905011656 28 258 1.6 4.8 0.00 0.00 0.00 79 1012.5
20260905011556 28 257 1.6 4.8 0.00 0.00 0.00 79 1012.5
20260905011455 28 257 0.0 0.0 0.00 0.00 0.00 79 1012.5
20260905011355 28 257 0.0 0.0 0.00 0.00 0.00 79 1012.4
20260905011255 28 257 0.0 0.0 0.00 0.00 0.00 79 1012.4
20260905011155 28 257 0.0 0.0 0.00 0.00 0.00 79 1012.3
20260905011055 28 257 0.0 0.0 0.00 0.00 0.00 79 1012.3
20260905010955 28 257 0.0 0.0 0.00 0.00 0.00 79 1012.3
20260905010855 28 257 0.0 0.0 0.00 0.00 0.00 79 1012.3
20260905010755 28 257 0.0 0.0 0.00 0.00 0.00 79 1012.2
20260905010655 28 257 0.0 0.0 0.00 0.00 0.00 79 1012.3
20260905010555 28 257 0.0 0.0 0.00 0.00 0.00 79 1012.3
20260905010455 28 257 0.0 0.0 0.00 0.00 0.00 79 1012.3
20260905010355 28 257 0.0 0.0 0.00 0.00 0.00 79 1012.3
20260905010255 28 257 0.0 0.0 0.00 0.00 0.00 80 1012.2
20260905010156 28 257 0.0 0.0 0.00 0.00 0.00 80 1012.3
20260905010054 28 257 0.0 0.0 0.00 0.00 0.00 80 1012.3
20260905005955 28 257 0.0 0.0 0.00 0.00 0.00 80 1012.4
20260905005855 28 257 0.0 0.0 0.00 0.00 0.00 80 1012.3
20260905005755 28 257 0.0 0.0 0.00 0.00 0.00 80 1012.3
20260905005655 28 257 0.0 0.0 0.00 0.00 0.00 80 1012.3
20260905005555 28 257 0.0 0.0 0.00 0.00 0.00 80 1012.3
20260905005455 28 257 0.0 0.0 0.00 0.00 0.00 80 1012.3
20260905005355 28 257 0.0 0.0 0.00 0.00 0.00 80 1012.4
20260905005255 28 257 0.0 0.0 0.00 0.00 0.00 80 1012.3
20260905005155 28 257 0.0 0.0 0.00 0.00 0.00 80 1012.4
20260905005055 28 257 0.0 0.0 0.00 0.00 0.00 80 1012.3
20260905004955 28 257 0.0 0.0 0.00 0.00 0.00 80 1012.3
20260905004853 28 257 0.0 0.0 0.00 0.00 0.00 80 1012.2
20260905004754 28 257 0.0 0.0 0.00 0.00 0.00 80 1012.2
20260905004655 28 257 0.0 0.0 0.00 0.00 0.00 80 1012.2
20260905004555 29 257 0.0 0.0 0.00 0.00 0.00 80 1012.3
20260905004454 29 257 0.0 0.0 0.00 0.00 0.00 80 1012.2
20260905004355 29 257 0.0 0.0 0.00 0.00 0.00 80 1012.2
20260905004255 29 257 0.0 0.0 0.00 0.00 0.00 79 1012.3
20260905004155 29 257 0.0 0.0 0.00 0.00 0.00 79 1012.2
20260905004055 29 257 0.0 0.0 0.00 0.00 0.00 79 1012.2
20260905003955 29 257 0.0 0.0 0.00 0.00 0.00 79 1012.2
20260905003855 29 257 0.0 0.0 0.00 0.00 0.00 79 1012.1
20260905003755 29 257 0.0 0.0 0.00 0.00 0.00 79 1012.2
20260905003654 29 257 0.0 0.0 0.00 0.00 0.00 79 1012.2
20260905003554 29 257 0.0 0.0 0.00 0.00 0.00 79 1012.2
20260905003454 29 257 0.0 0.0 0.00 0.00 0.00 79 1012.1
20260905003354 29 257 0.0 0.0 0.00 0.00 0.00 79 1012.1
20260905003254 29 257 0.0 0.0 0.00 0.00 0.00 78 1012.1
20260905003155 29 257 0.0 0.0 0.00 0.00 0.00 78 1012.1
20260905003055 29 257 0.0 0.0 0.00 0.00 0.00 78 1012.2
20260905002954 29 257 0.0 0.0 0.00 0.00 0.00 78 1012.2
20260905002854 29 257 0.0 0.0 0.00 0.00 0.00 78 1012.2
20260905002754 30 257 0.0 0.0 0.00 0.00 0.00 78 1012.2
20260905002654 30 257 0.0 0.0 0.00 0.00 0.00 78 1012.2
20260905002554 30 257 0.0 0.0 0.00 0.00 0.00 78 1012.1
20260905002454 30 257 0.0 0.0 0.00 0.00 0.00 77 1012.2
20260905002354 30 257 0.0 0.0 0.00 0.00 0.00 77 1012.2
20260905002254 30 257 0.0 0.0 0.00 0.00 0.00 77 1012.2
20260905002154 30 257 0.0 0.0 0.00 0.00 0.00 77 1012.3
20260905002054 30 257 0.0 0.0 0.00 0.00 0.00 77 1012.2
20260905001954 30 257 0.0 0.0 0.00 0.00 0.00 77 1012.2
20260905001854 30 257 0.0 0.0 0.00 0.00 0.00 77 1012.2
20260905001755 30 257 0.0 0.0 0.00 0.00 0.00 77 1012.1
20260905001654 30 257 0.0 0.0 0.00 0.00 0.00 76 1012.2
20260905001554 30 257 0.0 0.0 0.00 0.00 0.00 76 1012.2
20260905001454 30 257 0.0 0.0 0.00 0.00 0.00 76 1012.2
20260905001354 30 257 0.0 0.0 0.00 0.00 0.00 76 1012.2
20260905001254 30 257 0.0 0.0 0.00 0.00 0.00 76 1012.1
20260905001154 30 257 0.0 0.0 0.00 0.00 0.00 76 1012.2
20260905001054 30 257 0.0 0.0 0.00 0.00 0.00 75 1012.2
20260905000954 30 257 0.0 0.0 0.00 0.00 0.00 75 1012.2
20260905000853 30 257 0.0 0.0 0.00 0.00 0.00 75 1012.1
20260905000753 30 257 0.0 0.0 0.00 0.00 0.00 75 1012.2
20260905000653 30 257 0.0 0.0 0.00 0.00 0.00 75 1012.2
20260905000554 30 257 0.0 0.0 0.00 0.00 0.00 75 1012.1
20260905000454 30 257 0.0 0.0 0.00 0.00 0.00 74 1012.1
20260905000355 30 257 0.0 0.0 0.00 0.00 0.00 74 1012.2
20260905000255 30 257 0.0 0.0 0.00 0.00 0.00 74 1012.1
20260905000154 30 257 0.0 0.0 0.00 0.00 0.00 74 1012.1
20260905000054 30 257 0.0 0.0 0.00 0.00 0.00 74 1012.1
20260904235953 30 257 0.0 0.0 0.00 0.00 0.00 74 1012.1
20260904235854 31 257 0.0 0.0 0.00 0.00 0.00 73 1012.1
20260904235754 31 257 0.0 0.0 0.00 0.00 0.00 73 1012.1
20260904235653 31 257 0.0 0.0 0.00 0.00 0.00 72 1012.1
20260904235553 31 257 0.0 0.0 0.00 0.00 0.00 72 1012.1
20260904235453 31 257 0.0 0.0 0.00 0.00 0.00 73 1012.0
20260904235354 31 257 0.0 0.0 0.00 0.00 0.00 73 1012.1
20260904235253 31 257 0.0 0.0 0.00 0.00 0.00 73 1012.0
20260904235153 31 257 0.0 0.0 0.00 0.00 0.00 72 1012.0
20260904235053 31 257 0.0 0.0 0.00 0.00 0.00 72 1012.0
20260904234953 31 257 0.0 0.0 0.00 0.00 0.00 72 1012.0
20260904234853 31 257 0.0 0.0 0.00 0.00 0.00 72 1012.0
20260904234753 31 257 0.0 0.0 0.00 0.00 0.00 72 1012.1
20260904234653 31 257 0.0 0.0 0.00 0.00 0.00 71 1012.0
20260904234553 31 257 0.0 0.0 0.00 0.00 0.00 71 1012.0
20260904234453 31 257 0.0 0.0 0.00 0.00 0.00 71 1012.0
20260904234353 31 257 0.0 0.0 0.00 0.00 0.00 72 1012.0
20260904234253 31 257 0.0 0.0 0.00 0.00 0.00 72 1012.0
20260904234153 31 257 0.0 0.0 0.00 0.00 0.00 71 1012.0
20260904234053 31 257 0.0 0.0 0.00 0.00 0.00 71 1012.0
20260904233953 31 257 0.0 0.0 0.00 0.00 0.00 71 1012.0
20260904233853 31 257 0.0 0.0 0.00 0.00 0.00 71 1012.0
20260904233753 31 257 0.0 0.0 0.00 0.00 0.00 71 1012.0
20260904233653 31 257 0.0 0.0 0.00 0.00 0.00 71 1012.0
20260904233553 31 257 0.0 0.0 0.00 0.00 0.00 71 1012.1
20260904233453 31 257 0.0 0.0 0.00 0.00 0.00 71 1012.1
20260904233353 31 257 0.0 0.0 0.00 0.00 0.00 71 1012.0
20260904233253 31 257 0.0 0.0 0.00 0.00 0.00 71 1012.0
20260904233152 32 257 0.0 0.0 0.00 0.00 0.00 71 1012.0
20260904233052 32 257 0.0 0.0 0.00 0.00 0.00 72 1012.0
20260904232953 32 257 0.0 0.0 0.00 0.00 0.00 73 1012.0
20260904232853 32 257 0.0 0.0 0.00 0.00 0.00 74 1012.0
20260904232753 32 257 0.0 0.0 0.00 0.00 0.00 73 1012.0
20260904232653 32 257 0.0 0.0 0.00 0.00 0.00 73 1012.0
20260904232553 32 257 0.0 0.0 0.00 0.00 0.00 73 1012.0
20260904232453 32 257 0.0 0.0 0.00 0.00 0.00 72 1012.0
20260904232353 32 257 0.0 0.0 0.00 0.00 0.00 69 1012.0
20260904232253 32 257 0.0 0.0 0.00 0.00 0.00 69 1012.0
20260904232153 32 257 0.0 0.0 0.00 0.00 0.00 68 1011.9
20260904232052 32 257 0.0 0.0 0.00 0.00 0.00 69 1012.0
20260904231952 32 257 0.0 0.0 0.00 0.00 0.00 69 1012.0
20260904231852 32 257 0.0 0.0 0.00 0.00 0.00 69 1012.0
20260904231753 32 257 0.0 0.0 0.00 0.00 0.00 69 1012.0
20260904231652 32 257 0.0 0.0 0.00 0.00 0.00 69 1012.0
20260904231553 32 257 0.0 0.0 0.00 0.00 0.00 69 1012.0
20260904231453 32 257 0.0 0.0 0.00 0.00 0.00 69 1012.0
20260904231353 32 257 0.0 0.0 0.00 0.00 0.00 69 1012.0
20260904231253 32 257 0.0 0.0 0.00 0.00 0.00 69 1012.0
20260904231153 32 257 0.0 0.0 0.00 0.00 0.00 68 1012.0
20260904231053 32 257 0.0 0.0 0.00 0.00 0.00 68 1011.9
20260904230952 32 257 0.0 0.0 0.00 0.00 0.00 68 1012.0
20260904230852 32 257 0.0 0.0 0.00 0.00 0.00 67 1012.0
20260904230752 32 257 0.0 0.0 0.00 0.00 0.00 67 1011.9
20260904230652 32 257 0.0 0.0 0.00 0.00 0.00 66 1011.9
20260904230552 32 257 0.0 0.0 0.00 0.00 0.00 66 1011.9
20260904230452 32 257 0.0 0.0 0.00 0.00 0.00 66 1012.0
20260904230352 33 257 0.0 0.0 0.00 0.00 0.00 65 1011.9
20260904230252 33 257 0.0 0.0 0.00 0.00 0.00 65 1011.9
20260904230153 33 257 0.0 0.0 0.00 0.00 0.00 65 1011.9
20260904230053 33 257 0.0 0.0 0.00 0.00 0.00 66 1011.9
20260904225952 33 257 0.0 0.0 0.00 0.00 0.00 66 1012.0
20260904225852 33 257 0.0 0.0 0.00 0.00 0.00 66 1011.9
20260904225753 33 257 0.0 0.0 0.00 0.00 0.00 65 1011.9
20260904225652 33 257 0.0 0.0 0.00 0.00 0.00 65 1011.9
20260904225552 33 257 0.0 0.0 0.00 0.00 0.00 64 1012.0
20260904225452 33 257 0.0 0.0 0.00 0.00 0.00 64 1011.9
20260904225352 33 257 0.0 0.0 0.00 0.00 0.00 64 1012.0
20260904225252 33 257 0.0 0.0 0.00 0.00 0.00 64 1012.0
20260904225152 33 257 0.0 0.0 0.00 0.00 0.00 63 1012.0
20260904225052 33 257 0.0 0.0 0.00 0.00 0.00 63 1012.0
20260904224952 33 257 0.0 0.0 0.00 0.00 0.00 63 1012.0
20260904224852 33 257 0.0 0.0 0.00 0.00 0.00 63 1012.1
20260904224752 33 257 0.0 0.0 0.00 0.00 0.00 63 1012.0
20260904224652 33 257 0.0 0.0 0.00 0.00 0.00 63 1012.0
20260904224551 33 257 0.0 0.0 0.00 0.00 0.00 62 1012.1
20260904224451 33 257 0.0 0.0 0.00 0.00 0.00 62 1012.0
20260904224352 33 257 0.0 0.0 0.00 0.00 0.00 62 1012.1
20260904224252 33 257 0.0 0.0 0.00 0.00 0.00 62 1012.0
20260904224153 33 257 0.0 0.0 0.00 0.00 0.00 62 1012.0
20260904224052 33 257 0.0 1.6 0.00 0.00 0.00 62 1012.0
20260904223952 33 257 0.0 1.6 0.00 0.00 0.00 61 1012.0
20260904223852 33 257 0.0 1.6 0.00 0.00 0.00 61 1012.0
20260904223752 33 257 0.0 4.8 0.00 0.00 0.00 61 1012.1
20260904223652 34 257 0.0 4.8 0.00 0.00 0.00 61 1012.0
20260904223551 34 257 0.0 4.8 0.00 0.00 0.00 61 1012.0
20260904223452 34 257 0.0 4.8 0.00 0.00 0.00 61 1012.1
20260904223351 34 257 0.0 4.8 0.00 0.00 0.00 60 1012.0
20260904223251 34 257 0.0 4.8 0.00 0.00 0.00 60 1012.1
20260904223151 34 257 0.0 4.8 0.00 0.00 0.00 61 1012.1
20260904223051 34 257 0.0 4.8 0.00 0.00 0.00 60 1012.0
20260904222951 34 257 0.0 4.8 0.00 0.00 0.00 60 1012.1
20260904222851 34 257 0.0 4.8 0.00 0.00 0.00 60 1012.1
20260904222751 34 257 0.0 0.0 0.00 0.00 0.00 60 1012.1
20260904222651 34 257 0.0 0.0 0.00 0.00 0.00 59 1012.0
20260904222551 34 257 0.0 0.0 0.00 0.00 0.00 59 1012.1
20260904222452 34 257 0.0 0.0 0.00 0.00 0.00 58 1012.1
20260904222352 34 257 0.0 0.0 0.00 0.00 0.00 58 1012.1
20260904222252 35 257 0.0 0.0 0.00 0.00 0.00 59 1012.1
20260904222151 35 257 0.0 0.0 0.00 0.00 0.00 58 1012.1
20260904222051 35 257 0.0 0.0 0.00 0.00 0.00 59 1012.2
20260904221951 35 257 0.0 0.0 0.00 0.00 0.00 58 1012.2
20260904221851 35 257 0.0 1.6 0.00 0.00 0.00 58 1012.1
20260904221751 35 257 0.0 1.6 0.00 0.00 0.00 57 1012.2
20260904221651 35 257 0.0 1.6 0.00 0.00 0.00 58 1012.2
20260904221551 35 257 0.0 3.2 0.00 0.00 0.00 58 1012.1
20260904221451 35 257 0.0 3.2 0.00 0.00 0.00 58 1012.1
20260904221351 35 257 0.0 3.2 0.00 0.00 0.00 58 1012.1
20260904221251 35 257 0.0 3.2 0.00 0.00 0.00 58 1012.1
20260904221151 35 257 0.0 3.2 0.00 0.00 0.00 59 1012.1
20260904221052 35 257 0.0 3.2 0.00 0.00 0.00 59 1012.1
20260904220951 35 257 0.0 3.2 0.00 0.00 0.00 59 1012.1
20260904220851 35 257 0.0 3.2 0.00 0.00 0.00 58 1012.0
20260904220751 35 257 0.0 3.2 0.00 0.00 0.00 58 1012.1
20260904220651 35 257 0.0 3.2 0.00 0.00 0.00 57 1012.1
20260904220551 35 257 0.0 3.2 0.00 0.00 0.00 58 1012.2
20260904220451 35 257 0.0 3.2 0.00 0.00 0.00 57 1012.2
20260904220351 35 257 0.0 3.2 0.00 0.00 0.00 57 1012.1
20260904220251 35 257 0.0 3.2 0.00 0.00 0.00 57 1012.1
20260904220151 35 257 0.0 3.2 0.00 0.00 0.00 57 1012.2
20260904220051 35 257 0.0 3.2 0.00 0.00 0.00 57 1012.2
20260904215950 35 257 0.0 3.2 0.00 0.00 0.00 57 1012.2
20260904215851 35 257 0.0 3.2 0.00 0.00 0.00 56 1012.1
20260904215750 35 257 0.0 0.0 0.00 0.00 0.00 56 1012.2
20260904215651 35 257 0.0 0.0 0.00 0.00 0.00 56 1012.2
20260904215551 35 257 0.0 0.0 0.00 0.00 0.00 55 1012.2
20260904215451 36 257 0.0 0.0 0.00 0.00 0.00 55 1012.2
20260904215351 36 257 0.0 0.0 0.00 0.00 0.00 55 1012.2
20260904215251 36 257 0.0 0.0 0.00 0.00 0.00 55 1012.2
20260904215149 36 257 0.0 0.0 0.00 0.00 0.00 55 1012.3
20260904215050 36 257 0.0 0.0 0.00 0.00 0.00 55 1012.3
20260904214950 36 257 0.0 0.0 0.00 0.00 0.00 55 1012.3
20260904214850 36 257 0.0 0.0 0.00 0.00 0.00 54 1012.2
20260904214750 36 257 0.0 0.0 0.00 0.00 0.00 54 1012.3
20260904214651 36 257 0.0 0.0 0.00 0.00 0.00 54 1012.3
20260904214551 36 257 0.0 0.0 0.00 0.00 0.00 54 1012.3
20260904214451 36 257 0.0 0.0 0.00 0.00 0.00 53 1012.3
20260904214350 36 257 0.0 0.0 0.00 0.00 0.00 53 1012.3
20260904214250 36 257 0.0 0.0 0.00 0.00 0.00 52 1012.3
20260904214150 36 257 0.0 0.0 0.00 0.00 0.00 51 1012.3
20260904214051 36 257 0.0 0.0 0.00 0.00 0.00 51 1012.3
20260904213951 36 257 0.0 0.0 0.00 0.00 0.00 52 1012.3
20260904213851 36 257 0.0 0.0 0.00 0.00 0.00 51 1012.3
20260904213750 37 257 0.0 1.6 0.00 0.00 0.00 51 1012.3
20260904213650 37 257 0.0 1.6 0.00 0.00 0.00 50 1012.3
20260904213550 37 257 0.0 1.6 0.00 0.00 0.00 50 1012.3
20260904213450 37 257 0.0 1.6 0.00 0.00 0.00 50 1012.3
20260904213350 37 257 0.0 1.6 0.00 0.00 0.00 49 1012.3
20260904213250 37 257 0.0 6.4 0.00 0.00 0.00 49 1012.3
20260904213150 37 257 0.0 6.4 0.00 0.00 0.00 48 1012.2
20260904213050 37 257 0.0 6.4 0.00 0.00 0.00 48 1012.3
20260904212950 37 257 0.0 6.4 0.00 0.00 0.00 49 1012.3
20260904212850 37 257 0.0 6.4 0.00 0.00 0.00 49 1012.3
20260904212750 37 257 0.0 6.4 0.00 0.00 0.00 49 1012.3
20260904212650 37 257 0.0 6.4 0.00 0.00 0.00 48 1012.3
20260904212550 37 257 0.0 6.4 0.00 0.00 0.00 49 1012.3
20260904212450 37 257 1.6 6.4 0.00 0.00 0.00 49 1012.3
20260904212350 37 257 1.6 6.4 0.00 0.00 0.00 47 1012.3
20260904212250 37 257 1.6 3.2 0.00 0.00 0.00 48 1012.4
20260904212150 37 257 1.6 3.2 0.00 0.00 0.00 50 1012.4
20260904212050 37 257 0.0 1.6 0.00 0.00 0.00 51 1012.4
20260904211950 37 257 0.0 1.6 0.00 0.00 0.00 50 1012.4
20260904211850 37 257 0.0 1.6 0.00 0.00 0.00 50 1012.4
20260904211750 37 257 0.0 1.6 0.00 0.00 0.00 51 1012.4
20260904211649 37 257 0.0 1.6 0.00 0.00 0.00 49 1012.3
20260904211549 37 257 0.0 1.6 0.00 0.00 0.00 49 1012.4
20260904211449 37 257 0.0 1.6 0.00 0.00 0.00 50 1012.4
20260904211349 37 257 0.0 3.2 0.00 0.00 0.00 51 1012.4
20260904211249 37 257 0.0 3.2 0.00 0.00 0.00 53 1012.4
20260904211149 37 257 0.0 3.2 0.00 0.00 0.00 53 1012.4
20260904211049 37 257 0.0 3.2 0.00 0.00 0.00 51 1012.4
20260904210949 37 257 0.0 3.2 0.00 0.00 0.00 53 1012.4
20260904210850 37 257 0.0 3.2 0.00 0.00 0.00 52 1012.4
20260904210750 37 257 0.0 3.2 0.00 0.00 0.00 50 1012.4
20260904210650 37 257 0.0 3.2 0.00 0.00 0.00 51 1012.5
20260904210550 37 257 0.0 3.2 0.00 0.00 0.00 51 1012.5
20260904210450 37 257 0.0 3.2 0.00 0.00 0.00 52 1012.5
20260904210350 37 257 0.0 1.6 0.00 0.00 0.00 52 1012.4
20260904210249 37 257 0.0 1.6 0.00 0.00 0.00 51 1012.5
20260904210149 37 257 0.0 1.6 0.00 0.00 0.00 51 1012.5
20260904210049 37 257 0.0 1.6 0.00 0.00 0.00 50 1012.6
20260904205949 37 257 0.0 1.6 0.00 0.00 0.00 51 1012.6
20260904205849 37 257 0.0 1.6 0.00 0.00 0.00 51 1012.6
20260904205749 37 257 0.0 1.6 0.00 0.00 0.00 50 1012.7
20260904205649 37 257 0.0 1.6 0.00 0.00 0.00 50 1012.6
20260904205549 37 257 0.0 3.2 0.00 0.00 0.00 49 1012.7
20260904205449 37 257 0.0 3.2 0.00 0.00 0.00 47 1012.7
20260904205349 37 257 0.0 3.2 0.00 0.00 0.00 48 1012.7
20260904205249 37 257 0.0 3.2 0.00 0.00 0.00 48 1012.7